Bel Air, Maryland - USA


Today's Data File


5/4/26
Time         Wind Dir   Wind Spd  Wind Gust     Hum In   Humidity    Temp In       Temp  Raw Barom Wind Chill  Press Alt Cloud Base   Dens Alt Temp Out R  DailyRain   24HrRain   RainRate
                    �        mph        mph          %          %         �F         �F         in         �F         ft         ft         ft      �F/hr         in         in      in/hr
12:00am           310          0          0         37         65       74.0       45.5      29.41       45.5        471       2767       -299      -1.50       0.00       0.00      0.000
12:01am           310          0          0         37         65       74.0       45.5      29.41       45.5        471       2767       -299      -1.47       0.00       0.00      0.000
12:02am           310          0          0         37         65       74.0       45.4      29.41       45.4        471       2765       -306      -1.56       0.00       0.00      0.000
12:03am           310          0          0         37         65       74.0       45.5      29.41       45.5        471       2767       -299      -1.43       0.00       0.00      0.000
12:04am           310          0          0         37         65       74.0       45.4      29.41       45.4        471       2765       -306      -1.50       0.00       0.00      0.000
12:05am           310          0          0         37         65       74.0       45.4      29.42       45.4        470       2765       -307      -1.48       0.00       0.00      0.000
12:06am           310          0          0         37         65       74.0       45.4      29.42       45.4        470       2765       -307      -1.45       0.00       0.00      0.000
12:07am           310          0          0         37         65       74.0       45.3      29.42       45.3        470       2764       -314      -1.53       0.00       0.00      0.000
12:08am           310          0          0         37         65       74.0       45.3      29.42       45.3        470       2764       -314      -1.50       0.00       0.00      0.000
12:09am           310          0          0         37         65       74.0       45.3      29.42       45.3        470       2764       -314      -1.48       0.00       0.00      0.000
12:10am           310          0          0         37         65       74.0       45.3      29.42       45.3        470       2764       -314      -1.45       0.00       0.00      0.000
12:11am           310          0          0         37         66       74.0       45.2      29.42       45.2        470       2667       -321      -1.53       0.00       0.00      0.000
12:12am           310          0          0         37         65       74.0       45.2      29.42       45.2        470       2763       -321      -1.50       0.00       0.00      0.000
12:13am           310          0          0         37         65       74.0       45.2      29.42       45.2        469       2763       -322      -1.48       0.00       0.00      0.000
12:14am           310          0          0         37         65       74.0       45.1      29.42       45.1        469       2762       -329      -1.55       0.00       0.00      0.000
12:15am           310          0          0         37         66       74.0       45.1      29.42       45.1        468       2666       -330      -1.53       0.00       0.00      0.000
12:16am           310          0          0         37         66       74.0       45.1      29.42       45.1        469       2666       -329      -1.50       0.00       0.00      0.000
12:17am           310          0          0         37         66       74.0       45.1      29.42       45.1        469       2666       -329      -1.48       0.00       0.00      0.000
12:18am           310          0          0         37         66       74.0       45.1      29.42       45.1        470       2666       -328      -1.45       0.00       0.00      0.000
12:19am           310          0          0         37         66       74.0       45.0      29.42       45.0        469       2665       -336      -1.53       0.00       0.00      0.000
12:20am           310          0          0         37         66       74.0       45.0      29.42       45.0        469       2665       -336      -1.50       0.00       0.00      0.000
12:21am           310          0          0         37         66       74.0       45.0      29.42       45.0        469       2665       -336      -1.48       0.00       0.00      0.000
12:22am           310          1          1         37         67       74.0       45.0      29.42       45.0        468       2571       -337      -1.45       0.00       0.00      0.000
12:23am           310          0          1         37         67       74.0       45.0      29.42       45.0        468       2571       -337      -1.43       0.00       0.00      0.000
12:24am           310          0          1         37         67       74.0       45.0      29.42       45.0        468       2571       -337      -1.41       0.00       0.00      0.000
12:25am           310          0          1         37         66       74.0       45.0      29.42       45.0        467       2665       -338      -1.38       0.00       0.00      0.000
12:26am           310          0          0         37         66       74.0       45.1      29.42       45.1        467       2666       -331      -1.26       0.00       0.00      0.000
12:27am           310          0          0         37         67       74.0       45.1      29.42       45.1        468       2572       -330      -1.24       0.00       0.00      0.000
12:28am           310          0          0         37         67       74.0       45.1      29.42       45.1        469       2572       -329      -1.22       0.00       0.00      0.000
12:29am           310          1          2         37         66       74.0       45.2      29.42       45.2        470       2667       -321      -1.10       0.00       0.00      0.000
12:30am           310          0          2         37         67       74.0       45.2      29.42       45.2        470       2573       -321      -1.08       0.00       0.00      0.000
12:31am           310          0          0         37         66       74.0       45.4      29.42       45.4        470       2670       -307      -0.86       0.00       0.00      0.000
12:32am           310          0          0         37         65       74.0       45.5      29.42       45.5        470       2767       -301      -0.75       0.00       0.00      0.000
12:33am           310          0          0         37         65       74.0       45.6      29.42       45.6        470       2768       -294      -0.64       0.00       0.00      0.000
12:34am           310          0          0         37         64       74.0       45.7      29.42       45.7        470       2866       -287      -0.53       0.00       0.00      0.000
12:35am           310          0          0         37         64       74.0       45.8      29.42       45.8        470       2867       -280      -0.42       0.00       0.00      0.000
12:36am           310          0          0         37         64       74.0       45.9      29.42       45.9        470       2869       -273      -0.31       0.00       0.00      0.000
12:37am           310          0          0         37         64       74.0       45.9      29.42       45.9        470       2869       -273      -0.31       0.00       0.00      0.000
12:38am           310          0          0         37         64       74.0       45.9      29.42       45.9        470       2869       -273      -0.30       0.00       0.00      0.000
12:39am           310          0          0         37         65       74.0       45.9      29.42       45.9        470       2772       -273      -0.30       0.00       0.00      0.000
12:40am           310          0          0         37         64       74.0       46.0      29.42       46.0        470       2870       -267      -0.20       0.00       0.00      0.000
12:41am           310          0          0         37         65       74.0       46.0      29.42       46.0        470       2773       -267      -0.19       0.00       0.00      0.000
12:42am           310          0          0         37         65       74.0       46.0      29.42       46.0        470       2773       -267      -0.19       0.00       0.00      0.000
12:43am           310          0          0         37         65       74.0       46.0      29.42       46.0        470       2773       -267      -0.18       0.00       0.00      0.000
12:44am           310          0          0         37         65       74.0       45.9      29.42       45.9        470       2772       -273      -0.28       0.00       0.00      0.000
12:45am           310          0          0         37         64       74.0       45.9      29.42       45.9        470       2869       -273      -0.27       0.00       0.00      0.000
12:46am           310          0          0         37         64       74.0       45.9      29.42       45.9        470       2869       -273      -0.27       0.00       0.00      0.000
12:47am           310          0          0         37         64       74.0       45.8      29.42       45.8        469       2867       -281      -0.37       0.00       0.00      0.000
12:48am           310          0          0         37         64       74.0       45.8      29.42       45.8        469       2867       -281      -0.36       0.00       0.00      0.000
12:49am           310          0          0         37         64       74.0       45.8      29.42       45.8        468       2867       -282      -0.35       0.00       0.00      0.000
12:50am           310          0          0         37         64       74.0       45.7      29.42       45.7        467       2866       -290      -0.45       0.00       0.00      0.000
12:51am           310          0          0         37         65       74.0       45.7      29.42       45.7        467       2769       -290      -0.44       0.00       0.00      0.000
12:52am           310          0          0         37         67       74.0       45.7      29.42       45.7        466       2579       -292      -0.43       0.00       0.00      0.000
12:53am           310          0          0         37         67       74.0       45.7      29.42       45.7        466       2579       -292      -0.43       0.00       0.00      0.000
12:54am           310          0          0         37         68       74.0       45.6      29.42       45.6        466       2484       -298      -0.52       0.00       0.00      0.000
12:55am           310          0          0         37         69       74.0       45.6      29.42       45.6        465       2392       -299      -0.51       0.00       0.00      0.000
12:56am           310          0          0         37         70       74.0       45.6      29.42       45.6        465       2301       -299      -0.50       0.00       0.00      0.000
12:57am           310          0          0         37         70       74.0       45.5      29.42       45.5        465       2300       -306      -0.59       0.00       0.00      0.000
12:58am           310          0          0         37         70       74.0       45.5      29.42       45.5        464       2300       -307      -0.58       0.00       0.00      0.000
12:59am           310          0          0         37         70       74.0       45.4      29.42       45.4        464       2299       -314      -0.67       0.00       0.00      0.000
1:00am            310          0          0         37         70       74.0       45.4      29.42       45.4        463       2299       -316      -0.66       0.00       0.00      0.000
1:01am            310          0          0         37         68       74.0       45.3      29.43       45.3        461       2481       -326      -0.75       0.00       0.00      0.000
1:02am            224          3          3         37         68       74.0       45.2      29.43       44.2        460       2480       -333      -0.83       0.00       0.00      0.000
1:03am            224          1          4         37         69       74.0       45.1      29.43       45.1        460       2387       -340      -0.92       0.00       0.00      0.000
1:04am            224          0          4         37         68       74.0       45.0      29.43       45.0        461       2478       -346      -1.00       0.00       0.00      0.000
1:05am            224          0          4         37         68       74.0       45.0      29.43       45.0        461       2478       -346      -0.99       0.00       0.00      0.000
1:06am            224          0          0         37         70       74.0       44.9      29.42       44.9        464       2294       -349      -1.07       0.00       0.00      0.000
1:07am            224          0          0         37         70       74.0       44.9      29.42       44.9        464       2294       -349      -1.06       0.00       0.00      0.000
1:08am            224          0          0         37         70       74.0       44.9      29.42       44.9        465       2294       -347      -1.04       0.00       0.00      0.000
1:09am            224          0          0         37         70       74.0       44.9      29.42       44.9        465       2294       -347      -1.02       0.00       0.00      0.000
1:10am            224          0          0         37         70       74.0       44.8      29.42       44.8        465       2293       -354      -1.10       0.00       0.00      0.000
1:11am            224          0          0         37         70       74.0       44.8      29.42       44.8        465       2293       -354      -1.08       0.00       0.00      0.000
1:12am            224          0          0         37         71       73.8       44.7      29.42       44.7        465       2203       -361      -1.16       0.00       0.00      0.000
1:13am            224          0          0         37         72       73.8       44.7      29.42       44.7        464       2115       -362      -1.15       0.00       0.00      0.000
1:14am            224          0          0         37         72       73.8       44.7      29.42       44.7        464       2115       -362      -1.13       0.00       0.00      0.000
1:15am            224          0          0         37         73       73.8       44.7      29.42       44.7        464       2027       -363      -1.11       0.00       0.00      0.000
1:16am            224          0          0         37         72       73.8       44.6      29.42       44.6        463       2114       -371      -1.19       0.00       0.00      0.000
1:17am            224          0          0         37         71       73.8       44.5      29.42       44.5        463       2201       -378      -1.27       0.00       0.00      0.000
1:18am            224          0          0         37         70       73.8       44.5      29.42       44.5        463       2290       -378      -1.25       0.00       0.00      0.000
1:19am            224          0          0         37         69       73.8       44.5      29.42       44.5        464       2381       -375      -1.23       0.00       0.00      0.000
1:20am            224          0          0         37         70       73.8       44.4      29.42       44.4        464       2289       -382      -1.30       0.00       0.00      0.000
1:21am            224          0          0         37         72       73.8       44.4      29.42       44.4        465       2112       -381      -1.28       0.00       0.00      0.000
1:22am            224          0          0         37         71       73.8       44.4      29.42       44.4        465       2200       -381      -1.26       0.00       0.00      0.000
1:23am            224          0          0         37         71       73.8       44.3      29.42       44.3        466       2199       -387      -1.34       0.00       0.00      0.000
1:24am            224          0          0         37         71       73.8       44.3      29.42       44.3        466       2199       -387      -1.32       0.00       0.00      0.000
1:25am            224          0          0         37         70       73.8       44.3      29.42       44.3        467       2288       -385      -1.30       0.00       0.00      0.000
1:26am            224          0          0         37         70       73.8       44.2      29.42       44.2        466       2287       -393      -1.37       0.00       0.00      0.000
1:27am            224          0          0         37         70       73.8       44.2      29.42       44.2        467       2287       -392      -1.35       0.00       0.00      0.000
1:28am            224          0          0         37         70       73.8       44.2      29.42       44.2        468       2287       -391      -1.33       0.00       0.00      0.000
1:29am            224          0          0         37         70       73.8       44.1      29.42       44.1        467       2286       -399      -1.41       0.00       0.00      0.000
1:30am            224          0          0         37         71       73.8       44.1      29.42       44.1        468       2197       -398      -1.38       0.00       0.00      0.000
1:31am            224          0          0         37         72       73.8       44.1      29.42       44.1        468       2109       -398      -1.36       0.00       0.00      0.000
1:32am            224          0          0         37         71       73.8       44.1      29.42       44.1        469       2197       -397      -1.34       0.00       0.00      0.000
1:33am            224          0          0         37         70       73.8       44.1      29.42       44.1        469       2286       -397      -1.31       0.00       0.00      0.000
1:34am            224          0          0         37         70       73.8       44.0      29.42       44.0        470       2285       -402      -1.39       0.00       0.00      0.000
1:35am            224          0          0         37         70       73.8       44.0      29.42       44.0        470       2285       -402      -1.37       0.00       0.00      0.000
1:36am            224          0          0         37         70       73.8       43.9      29.42       43.9        470       2284       -409      -1.44       0.00       0.00      0.000
1:37am            224          0          0         37         70       73.8       43.9      29.42       43.9        470       2284       -409      -1.42       0.00       0.00      0.000
1:38am            224          0          0         37         69       73.8       43.9      29.41       43.9        471       2374       -408      -1.40       0.00       0.00      0.000
1:39am            224          0          0         37         69       73.8       43.8      29.41       43.8        471       2373       -415      -1.47       0.00       0.00      0.000
1:40am            224          0          0         37         69       73.8       43.9      29.41       43.9        471       2374       -408      -1.35       0.00       0.00      0.000
1:41am            224          0          0         37         70       73.8       43.8      29.42       43.8        470       2283       -416      -1.43       0.00       0.00      0.000
1:42am            224          0          0         37         71       73.8       43.9      29.42       43.9        470       2195       -409      -1.30       0.00       0.00      0.000
1:43am            224          0          0         37         71       73.8       43.9      29.42       43.9        470       2195       -409      -1.28       0.00       0.00      0.000
1:44am            224          0          0         37         70       73.8       44.0      29.42       44.0        470       2285       -402      -1.16       0.00       0.00      0.000
1:45am            224          0          0         37         70       73.8       43.9      29.42       43.9        470       2284       -409      -1.24       0.00       0.00      0.000
1:46am            224          0          0         37         70       73.8       43.9      29.42       43.9        470       2284       -409      -1.22       0.00       0.00      0.000
1:47am            224          0          0         37         69       73.8       43.9      29.42       43.9        470       2374       -409      -1.20       0.00       0.00      0.000
1:48am            224          0          0         37         69       73.8       43.9      29.42       43.9        470       2374       -409      -1.18       0.00       0.00      0.000
1:49am            224          0          0         37         69       73.8       43.9      29.42       43.9        470       2374       -409      -1.16       0.00       0.00      0.000
1:50am            224          0          0         37         68       73.8       44.0      29.42       44.0        470       2467       -402      -1.04       0.00       0.00      0.000
1:51am            224          0          0         38         68       73.8       44.0      29.42       44.0        468       2467       -405      -1.03       0.00       0.00      0.000
1:52am            224          0          0         37         68       73.8       44.0      29.42       44.0        469       2467       -403      -1.01       0.00       0.00      0.000
1:53am            224          0          0         37         68       73.8       44.0      29.42       44.0        469       2467       -403      -0.99       0.00       0.00      0.000
1:54am            224          0          0         37         68       73.8       44.0      29.42       44.0        469       2467       -403      -0.98       0.00       0.00      0.000
1:55am            224          0          0         37         68       73.8       44.0      29.42       44.0        469       2467       -403      -0.96       0.00       0.00      0.000
1:56am            224          0          0         37         69       73.8       44.0      29.42       44.0        470       2375       -402      -0.94       0.00       0.00      0.000
1:57am            224          0          0         37         70       73.8       43.9      29.42       43.9        470       2284       -409      -1.03       0.00       0.00      0.000
1:58am            224          0          0         37         70       73.8       44.0      29.42       44.0        470       2285       -402      -0.91       0.00       0.00      0.000
1:59am            224          0          0         37         70       73.8       43.9      29.42       43.9        470       2284       -409      -1.00       0.00       0.00      0.000
2:00am            224          0          0         37         69       73.8       43.8      29.42       43.8        470       2373       -416      -1.08       0.00       0.00      0.000
2:01am            224          0          0         37         69       73.8       43.9      29.42       43.9        470       2374       -409      -0.96       0.00       0.00      0.000
2:02am            224          0          0         37         70       73.8       43.8      29.42       43.8        470       2283       -416      -1.05       0.00       0.00      0.000
2:03am            224          0          0         37         70       73.8       43.8      29.42       43.8        470       2283       -416      -1.03       0.00       0.00      0.000
2:04am            224          0          0         37         69       73.8       43.8      29.42       43.8        469       2373       -417      -1.01       0.00       0.00      0.000
2:05am            224          0          0         37         69       73.8       43.8      29.42       43.8        469       2373       -417      -0.99       0.00       0.00      0.000
2:06am            224          0          0         37         69       73.8       43.8      29.42       43.8        469       2373       -417      -0.98       0.00       0.00      0.000
2:07am            224          0          0         37         70       73.8       43.8      29.42       43.8        469       2283       -417      -0.96       0.00       0.00      0.000
2:08am            224          0          0         37         70       73.8       43.8      29.42       43.8        468       2283       -418      -0.95       0.00       0.00      0.000
2:09am            224          0          0         37         70       73.8       43.7      29.42       43.7        469       2282       -424      -1.03       0.00       0.00      0.000
2:10am            224          0          0         37         70       73.8       43.7      29.42       43.7        469       2282       -424      -1.01       0.00       0.00      0.000
2:11am            224          0          0         37         70       73.8       43.7      29.42       43.7        469       2282       -424      -1.00       0.00       0.00      0.000
2:12am            224          0          0         37         70       73.8       43.7      29.42       43.7        469       2282       -424      -0.98       0.00       0.00      0.000
2:13am            224          0          0         37         70       73.8       43.7      29.42       43.7        469       2282       -424      -0.96       0.00       0.00      0.000
2:14am            224          0          0         37         70       73.8       43.7      29.42       43.7        469       2282       -424      -0.95       0.00       0.00      0.000
2:15am            224          0          0         37         70       73.8       43.6      29.42       43.6        469       2281       -431      -1.03       0.00       0.00      0.000
2:16am            224          0          0         37         70       73.8       43.6      29.42       43.6        469       2281       -431      -1.01       0.00       0.00      0.000
2:17am            224          0          0         37         70       73.8       43.6      29.42       43.6        469       2281       -431      -1.00       0.00       0.00      0.000
2:18am            224          0          0         37         70       73.8       43.6      29.42       43.6        469       2281       -431      -0.98       0.00       0.00      0.000
2:19am            224          0          0         37         70       73.8       43.6      29.42       43.6        470       2281       -430      -0.96       0.00       0.00      0.000
2:20am            224          0          0         37         71       73.8       43.5      29.42       43.5        470       2191       -436      -1.05       0.00       0.00      0.000
2:21am            224          0          0         37         71       73.8       43.5      29.42       43.5        470       2191       -436      -1.03       0.00       0.00      0.000
2:22am            224          0          0         37         71       73.8       43.4      29.41       43.4        471       2190       -442      -1.11       0.00       0.00      0.000
2:23am            224          0          0         37         71       73.8       43.4      29.41       43.4        471       2190       -442      -1.09       0.00       0.00      0.000
2:24am            224          0          0         37         71       73.8       43.4      29.41       43.4        471       2190       -442      -1.08       0.00       0.00      0.000
2:25am            224          0          0         37         72       73.8       43.4      29.41       43.4        471       2103       -442      -1.06       0.00       0.00      0.000
2:26am            224          0          0         37         72       73.8       43.3      29.41       43.3        471       2102       -449      -1.14       0.00       0.00      0.000
2:27am            224          0          0         37         72       73.8       43.4      29.41       43.4        471       2103       -442      -1.02       0.00       0.00      0.000
2:28am            224          0          0         37         72       73.8       43.4      29.41       43.4        471       2103       -442      -1.01       0.00       0.00      0.000
2:29am            224          0          0         37         73       73.8       43.3      29.41       43.3        472       2015       -448      -1.09       0.00       0.00      0.000
2:30am            224          0          0         37         73       73.8       43.3      29.41       43.3        472       2015       -448      -1.07       0.00       0.00      0.000
2:31am            224          0          0         37         73       73.8       43.3      29.41       43.3        472       2015       -448      -1.05       0.00       0.00      0.000
2:32am            224          0          0         37         73       73.8       43.3      29.41       43.3        472       2015       -448      -1.03       0.00       0.00      0.000
2:33am            224          0          0         37         72       73.8       43.3      29.41       43.3        471       2102       -449      -1.02       0.00       0.00      0.000
2:34am            224          0          0         37         73       73.8       43.2      29.41       43.2        471       2014       -456      -1.10       0.00       0.00      0.000
2:35am            224          0          0         37         73       73.8       43.3      29.41       43.3        471       2015       -449      -0.98       0.00       0.00      0.000
2:36am            224          0          0         37         72       73.8       43.2      29.41       43.2        471       2101       -456      -1.07       0.00       0.00      0.000
2:37am            224          0          0         37         73       73.8       43.2      29.41       43.2        471       2014       -456      -1.05       0.00       0.00      0.000
2:38am            224          0          0         37         72       73.8       43.1      29.41       43.1        471       2100       -462      -1.13       0.00       0.00      0.000
2:39am            224          0          0         37         72       73.8       43.1      29.41       43.1        471       2100       -462      -1.11       0.00       0.00      0.000
2:40am            224          0          0         37         72       73.8       43.1      29.41       43.1        471       2100       -462      -1.09       0.00       0.00      0.000
2:41am            224          0          0         37         72       73.8       43.1      29.41       43.1        471       2100       -462      -1.07       0.00       0.00      0.000
2:42am            224          0          0         37         72       73.8       43.1      29.41       43.1        471       2100       -462      -1.06       0.00       0.00      0.000
2:43am            224          0          0         37         72       73.8       43.1      29.41       43.1        471       2100       -462      -1.04       0.00       0.00      0.000
2:44am            224          0          0         37         72       73.8       43.0      29.41       43.0        471       2099       -469      -1.12       0.00       0.00      0.000
2:45am            224          0          0         37         72       73.8       43.1      29.41       43.1        471       2100       -462      -1.00       0.00       0.00      0.000
2:46am            224          0          0         37         72       73.8       43.1      29.41       43.1        471       2100       -462      -0.99       0.00       0.00      0.000
2:47am            224          0          0         37         73       73.8       43.1      29.41       43.1        471       2013       -462      -0.97       0.00       0.00      0.000
2:48am            224          0          0         37         73       73.8       43.1      29.41       43.1        471       2013       -462      -0.95       0.00       0.00      0.000
2:49am            224          0          0         37         72       73.8       43.0      29.41       43.0        471       2099       -469      -1.04       0.00       0.00      0.000
2:50am            224          0          0         37         72       73.8       43.0      29.41       43.0        471       2099       -469      -1.02       0.00       0.00      0.000
2:51am            224          0          0         37         72       73.8       43.0      29.41       43.0        471       2099       -469      -1.00       0.00       0.00      0.000
2:52am            224          0          0         37         72       73.8       43.0      29.41       43.0        471       2099       -469      -0.99       0.00       0.00      0.000
2:53am            224          0          0         37         72       73.8       43.1      29.41       43.1        471       2100       -462      -0.87       0.00       0.00      0.000
2:54am            224          0          0         37         72       73.6       43.0      29.41       43.0        471       2099       -469      -0.96       0.00       0.00      0.000
2:55am            224          0          0         37         72       73.6       43.0      29.41       43.0        471       2099       -469      -0.94       0.00       0.00      0.000
2:56am            224          0          0         37         72       73.6       43.1      29.41       43.1        472       2100       -461      -0.83       0.00       0.00      0.000
2:57am            224          0          0         37         72       73.6       43.1      29.41       43.1        472       2100       -461      -0.81       0.00       0.00      0.000
2:58am            224          0          0         37         72       73.6       43.0      29.41       43.0        472       2099       -468      -0.90       0.00       0.00      0.000
2:59am            224          0          0         37         72       73.6       43.0      29.41       43.0        472       2099       -468      -0.88       0.00       0.00      0.000
3:00am            224          0          0         37         72       73.6       43.1      29.41       43.1        473       2100       -460      -0.77       0.00       0.00      0.000
3:01am            224          0          0         37         72       73.8       43.0      29.41       43.0        473       2099       -467      -0.85       0.00       0.00      0.000
3:02am            224          0          0         37         72       73.6       43.1      29.41       43.1        473       2100       -460      -0.74       0.00       0.00      0.000
3:03am            224          0          0         37         72       73.6       43.1      29.41       43.1        473       2100       -460      -0.73       0.00       0.00      0.000
3:04am            224          0          0         37         72       73.6       43.1      29.41       43.1        473       2100       -460      -0.72       0.00       0.00      0.000
3:05am            224          0          0         37         72       73.6       43.1      29.41       43.1        473       2100       -460      -0.71       0.00       0.00      0.000
3:06am            224          0          0         37         71       73.6       43.1      29.41       43.1        473       2187       -460      -0.69       0.00       0.00      0.000
3:07am            224          0          0         37         71       73.6       43.0      29.41       43.0        473       2186       -467      -0.78       0.00       0.00      0.000
3:08am            224          0          0         37         71       73.6       43.1      29.41       43.1        473       2187       -460      -0.67       0.00       0.00      0.000
3:09am            224          0          0         37         71       73.6       43.0      29.41       43.0        473       2186       -467      -0.76       0.00       0.00      0.000
3:10am            224          0          0         37         71       73.6       43.0      29.41       43.0        472       2186       -468      -0.74       0.00       0.00      0.000
3:11am            224          0          0         37         71       73.6       43.0      29.41       43.0        472       2186       -468      -0.73       0.00       0.00      0.000
3:12am            224          0          0         37         72       73.6       43.0      29.41       43.0        473       2099       -467      -0.72       0.00       0.00      0.000
3:13am            224          0          0         37         72       73.6       43.0      29.41       43.0        472       2099       -468      -0.71       0.00       0.00      0.000
3:14am            224          0          0         37         72       73.6       43.0      29.41       43.0        472       2099       -468      -0.70       0.00       0.00      0.000
3:15am            224          0          0         37         72       73.6       43.0      29.41       43.0        472       2099       -468      -0.69       0.00       0.00      0.000
3:16am            224          0          0         37         73       73.6       43.0      29.41       43.0        471       2012       -469      -0.67       0.00       0.00      0.000
3:17am            224          0          0         37         73       73.6       43.0      29.41       43.0        471       2012       -469      -0.66       0.00       0.00      0.000
3:18am            224          1          1         37         73       73.6       43.0      29.41       43.0        471       2012       -469      -0.65       0.00       0.00      0.000
3:19am            224          2          2         37         72       73.6       43.1      29.41       43.1        471       2100       -462      -0.54       0.00       0.00      0.000
3:20am            224          0          2         38         72       73.6       43.1      29.41       43.1        471       2100       -462      -0.53       0.00       0.00      0.000
3:21am            224          1          1         37         72       73.6       43.2      29.41       43.2        471       2101       -456      -0.43       0.00       0.00      0.000
3:22am            224          1          1         37         73       73.6       43.2      29.41       43.2        471       2014       -456      -0.42       0.00       0.00      0.000
3:23am            224          0          1         37         73       73.6       43.2      29.41       43.2        471       2014       -456      -0.41       0.00       0.00      0.000
3:24am            224          0          1         37         73       73.6       43.3      29.41       43.3        471       2015       -449      -0.31       0.00       0.00      0.000
3:25am            224          0          1         37         73       73.6       43.3      29.41       43.3        472       2015       -448      -0.30       0.00       0.00      0.000
3:26am            224          0          0         37         73       73.6       43.3      29.41       43.3        472       2015       -448      -0.29       0.00       0.00      0.000
3:27am            224          0          0         37         73       73.6       43.3      29.41       43.3        472       2015       -448      -0.29       0.00       0.00      0.000
3:28am            224          0          0         37         73       73.6       43.3      29.41       43.3        472       2015       -448      -0.28       0.00       0.00      0.000
3:29am            224          0          0         37         73       73.6       43.2      29.41       43.2        471       2014       -456      -0.38       0.00       0.00      0.000
3:30am            224          0          0         37         73       73.6       43.3      29.41       43.3        471       2015       -449      -0.27       0.00       0.00      0.000
3:31am            224          0          0         37         73       73.6       43.2      29.41       43.2        471       2014       -456      -0.37       0.00       0.00      0.000
3:32am            224          0          0         37         73       73.6       43.2      29.41       43.2        471       2014       -456      -0.36       0.00       0.00      0.000
3:33am            224          0          0         37         73       73.6       43.2      29.41       43.2        471       2014       -456      -0.36       0.00       0.00      0.000
3:34am            224          0          0         37         73       73.6       43.2      29.41       43.2        471       2014       -456      -0.35       0.00       0.00      0.000
3:35am            224          0          0         37         73       73.6       43.1      29.41       43.1        471       2013       -462      -0.44       0.00       0.00      0.000
3:36am            224          0          0         37         73       73.6       43.2      29.41       43.2        471       2014       -456      -0.34       0.00       0.00      0.000
3:37am            224          1          1         37         73       73.6       43.2      29.41       43.2        471       2014       -456      -0.33       0.00       0.00      0.000
3:38am            224          1          1         37         74       73.6       43.2      29.41       43.2        471       1928       -456      -0.33       0.00       0.00      0.000
3:39am            224          0          1         37         74       73.6       43.3      29.41       43.3        471       1929       -449      -0.22       0.00       0.00      0.000
3:40am            224          0          1         37         74       73.6       43.3      29.41       43.3        471       1929       -449      -0.22       0.00       0.00      0.000
3:41am            224          0          0         37         73       73.6       43.3      29.41       43.3        472       2015       -448      -0.21       0.00       0.00      0.000
3:42am            224          0          0         37         73       73.6       43.3      29.41       43.3        471       2015       -449      -0.21       0.00       0.00      0.000
3:43am            224          0          0         37         72       73.6       43.3      29.41       43.3        471       2102       -449      -0.21       0.00       0.00      0.000
3:44am            224          0          0         37         72       73.6       43.3      29.41       43.3        471       2102       -449      -0.20       0.00       0.00      0.000
3:45am            224          0          0         37         72       73.6       43.3      29.41       43.3        471       2102       -449      -0.20       0.00       0.00      0.000
3:46am            224          0          0         37         72       73.6       43.3      29.41       43.3        471       2102       -449      -0.20       0.00       0.00      0.000
3:47am            224          2          2         37         73       73.6       43.3      29.41       43.3        471       2015       -449      -0.19       0.00       0.00      0.000
3:48am            224          1          2         37         73       73.6       43.4      29.41       43.4        471       2016       -442      -0.09       0.00       0.00      0.000
3:49am            224          0          2         37         73       73.6       43.4      29.41       43.4        471       2016       -442      -0.09       0.00       0.00      0.000
3:50am            224          0          2         37         74       73.6       43.5      29.41       43.5        471       1931       -435       0.01       0.00       0.00      0.000
3:51am            224          0          0         37         73       73.6       43.4      29.41       43.4        471       2016       -442      -0.09       0.00       0.00      0.000
3:52am            224          0          0         37         73       73.6       43.4      29.41       43.4        471       2016       -442      -0.09       0.00       0.00      0.000
3:53am            224          0          0         37         73       73.6       43.4      29.41       43.4        471       2016       -442      -0.08       0.00       0.00      0.000
3:54am            224          0          0         37         73       73.6       43.4      29.41       43.4        471       2016       -442      -0.08       0.00       0.00      0.000
3:55am            224          0          0         37         73       73.6       43.4      29.41       43.4        472       2016       -441      -0.08       0.00       0.00      0.000
3:56am            224          0          0         37         73       73.6       43.3      29.41       43.3        472       2015       -448      -0.18       0.00       0.00      0.000
3:57am            224          0          0         37         73       73.6       43.3      29.41       43.3        471       2015       -449      -0.18       0.00       0.00      0.000
3:58am            224          0          0         37         73       73.6       43.3      29.41       43.3        471       2015       -449      -0.17       0.00       0.00      0.000
3:59am            224          0          0         37         73       73.6       43.3      29.41       43.3        471       2015       -449      -0.17       0.00       0.00      0.000
4:00am            224          0          0         37         73       73.6       43.3      29.41       43.3        471       2015       -449      -0.17       0.00       0.00      0.000
4:01am            224          0          0         37         73       73.6       43.3      29.41       43.3        471       2015       -449      -0.16       0.00       0.00      0.000
4:02am            224          0          0         37         73       73.6       43.3      29.41       43.3        471       2015       -449      -0.16       0.00       0.00      0.000
4:03am            224          0          0         37         73       73.6       43.2      29.41       43.2        471       2014       -456      -0.26       0.00       0.00      0.000
4:04am            224          0          0         37         73       73.6       43.2      29.41       43.2        471       2014       -456      -0.25       0.00       0.00      0.000
4:05am            224          0          0         37         73       73.6       43.1      29.41       43.1        471       2013       -462      -0.35       0.00       0.00      0.000
4:06am            224          0          0         37         73       73.6       43.1      29.41       43.1        471       2013       -462      -0.34       0.00       0.00      0.000
4:07am            224          0          0         37         74       73.6       43.1      29.41       43.1        471       1928       -462      -0.34       0.00       0.00      0.000
4:08am            224          0          0         37         74       73.6       43.1      29.41       43.1        471       1928       -462      -0.33       0.00       0.00      0.000
4:09am            224          0          0         37         74       73.6       43.1      29.41       43.1        471       1928       -462      -0.33       0.00       0.00      0.000
4:10am            224          0          0         37         75       73.6       43.1      29.41       43.1        471       1843       -462      -0.32       0.00       0.00      0.000
4:11am            224          0          0         37         75       73.6       43.1      29.41       43.1        471       1843       -462      -0.32       0.00       0.00      0.000
4:12am            224          0          0         37         74       73.6       43.2      29.41       43.2        471       1928       -456      -0.21       0.00       0.00      0.000
4:13am            224          0          0         37         74       73.5       43.1      29.41       43.1        471       1928       -462      -0.31       0.00       0.00      0.000
4:14am            224          0          0         37         73       73.5       43.0      29.41       43.0        471       2012       -469      -0.40       0.00       0.00      0.000
4:15am            224          0          0         37         73       73.5       43.1      29.41       43.1        471       2013       -462      -0.30       0.00       0.00      0.000
4:16am            224          0          0         37         73       73.5       43.0      29.41       43.0        471       2012       -469      -0.39       0.00       0.00      0.000
4:17am            224          0          0         37         73       73.5       43.1      29.41       43.1        471       2013       -462      -0.29       0.00       0.00      0.000
4:18am            224          0          0         37         73       73.5       43.0      29.41       43.0        471       2012       -469      -0.38       0.00       0.00      0.000
4:19am            224          0          0         37         73       73.5       42.9      29.41       42.9        471       2011       -476      -0.47       0.00       0.00      0.000
4:20am            224          0          0         37         73       73.5       42.9      29.41       42.9        471       2011       -476      -0.47       0.00       0.00      0.000
4:21am            224          0          0         37         73       73.5       43.0      29.41       43.0        471       2012       -469      -0.36       0.00       0.00      0.000
4:22am            224          0          0         37         74       73.5       43.0      29.41       43.0        471       1927       -469      -0.35       0.00       0.00      0.000
4:23am            224          0          0         37         73       73.5       43.0      29.41       43.0        471       2012       -469      -0.35       0.00       0.00      0.000
4:24am            224          2          2         37         73       73.5       43.1      29.41       43.1        471       2013       -462      -0.24       0.00       0.00      0.000
4:25am            224          1          2         37         74       73.5       43.1      29.41       43.1        471       1928       -462      -0.24       0.00       0.00      0.000
4:26am            224          1          2         36         74       73.5       43.1      29.41       43.1        471       1928       -462      -0.24       0.00       0.00      0.000
4:27am            224          2          2         37         73       73.5       43.1      29.41       43.1        471       2013       -462      -0.23       0.00       0.00      0.000
4:28am            224          1          2         37         74       73.5       43.2      29.41       43.2        471       1928       -456      -0.13       0.00       0.00      0.000
4:29am            224          1          2         37         74       73.5       43.1      29.41       43.1        471       1928       -462      -0.22       0.00       0.00      0.000
4:30am            224          1          2         37         74       73.5       43.1      29.42       43.1        470       1928       -464      -0.22       0.00       0.00      0.000
4:31am            224          0          1         37         75       73.5       43.1      29.42       43.1        470       1843       -464      -0.22       0.00       0.00      0.000
4:32am            224          0          1         37         75       73.5       43.1      29.42       43.1        470       1843       -464      -0.21       0.00       0.00      0.000
4:33am            224          0          1         37         75       73.5       43.0      29.42       43.0        470       1842       -470      -0.31       0.00       0.00      0.000
4:34am            224          0          1         37         74       73.5       43.0      29.42       43.0        470       1927       -470      -0.31       0.00       0.00      0.000
4:35am            224          0          1         37         74       73.5       43.0      29.41       43.0        471       1927       -469      -0.30       0.00       0.00      0.000
4:36am            224          0          0         37         74       73.5       43.0      29.41       43.0        471       1927       -469      -0.30       0.00       0.00      0.000
4:37am            224          0          0         37         74       73.5       43.0      29.42       43.0        470       1927       -470      -0.29       0.00       0.00      0.000
4:38am            224          0          0         37         74       73.5       42.9      29.41       42.9        471       1926       -476      -0.39       0.00       0.00      0.000
4:39am            224          0          0         37         74       73.5       42.9      29.41       42.9        471       1926       -476      -0.38       0.00       0.00      0.000
4:40am            224          0          0         37         74       73.5       43.0      29.41       43.0        471       1927       -469      -0.27       0.00       0.00      0.000
4:41am            224          0          0         37         75       73.5       42.9      29.41       42.9        471       1841       -476      -0.37       0.00       0.00      0.000
4:42am            224          0          0         37         75       73.5       42.9      29.41       42.9        471       1841       -476      -0.36       0.00       0.00      0.000
4:43am            224          0          0         37         75       73.5       42.8      29.41       42.8        471       1841       -483      -0.46       0.00       0.00      0.000
4:44am            224          0          0         37         75       73.5       42.8      29.41       42.8        471       1841       -483      -0.45       0.00       0.00      0.000
4:45am            224          0          0         37         76       73.5       42.8      29.41       42.8        471       1757       -483      -0.44       0.00       0.00      0.000
4:46am            224          0          0         37         76       73.5       42.8      29.41       42.8        471       1757       -483      -0.43       0.00       0.00      0.000
4:47am            224          0          0         37         76       73.5       42.7      29.41       42.7        471       1756       -490      -0.53       0.00       0.00      0.000
4:48am            224          0          0         37         76       73.5       42.7      29.41       42.7        471       1756       -490      -0.52       0.00       0.00      0.000
4:49am            224          0          0         37         76       73.5       42.7      29.41       42.7        472       1756       -489      -0.51       0.00       0.00      0.000
4:50am            224          0          0         37         76       73.5       42.7      29.41       42.7        472       1756       -489      -0.50       0.00       0.00      0.000
4:51am            224          0          0         36         77       73.5       42.6      29.41       42.6        472       1673       -495      -0.59       0.00       0.00      0.000
4:52am            224          0          0         37         77       73.5       42.6      29.41       42.6        471       1673       -497      -0.58       0.00       0.00      0.000
4:53am            224          0          0         37         77       73.5       42.5      29.41       42.5        471       1673       -503      -0.67       0.00       0.00      0.000
4:54am            224          0          0         37         77       73.5       42.5      29.41       42.5        471       1673       -503      -0.66       0.00       0.00      0.000
4:55am            224          1          2         37         77       73.5       42.5      29.41       42.5        471       1673       -503      -0.65       0.00       0.00      0.000
4:56am            224          1          3         37         77       73.5       42.5      29.41       42.5        471       1673       -503      -0.64       0.00       0.00      0.000
4:57am            224          3          3         37         77       73.5       42.5      29.41       41.2        472       1673       -502      -0.63       0.00       0.00      0.000
4:58am            224          2          4         36         76       73.5       42.6      29.41       42.6        472       1756       -495      -0.52       0.00       0.00      0.000
4:59am            220          2          4         37         75       73.5       42.7      29.41       42.7        472       1840       -489      -0.41       0.00       0.00      0.000
5:00am            193          3          4         37         76       73.5       42.9      29.41       41.6        472       1758       -475      -0.21       0.00       0.00      0.000
5:01am            193          0          3         37         76       73.5       43.0      29.41       43.0        472       1759       -468      -0.10       0.00       0.00      0.000
5:02am            193          3          3         37         75       73.5       43.1      29.41       41.9        472       1843       -461      -0.00       0.00       0.00      0.000
5:03am            185          1          4         37         74       73.5       43.3      29.41       43.3        472       1929       -448       0.20       0.00       0.00      0.000
5:04am            185          2          4         37         74       73.5       43.4      29.41       43.4        472       1930       -441       0.29       0.00       0.00      0.000
5:05am            185          1          4         37         74       73.5       43.5      29.41       43.5        472       1931       -434       0.39       0.00       0.00      0.000
5:06am            185          2          2         37         74       73.5       43.6      29.41       43.6        472       1932       -427       0.48       0.00       0.00      0.000
5:07am            185          1          2         37         74       73.5       43.6      29.41       43.6        472       1932       -427       0.47       0.00       0.00      0.000
5:08am            185          1          2         37         75       73.5       43.8      29.41       43.8        472       1849       -414       0.66       0.00       0.00      0.000
5:09am            185          0          3         37         73       73.5       43.7      29.41       43.7        472       2019       -420       0.55       0.00       0.00      0.000
5:10am            185          0          3         37         73       73.5       43.7      29.41       43.7        472       2019       -420       0.54       0.00       0.00      0.000
5:11am            185          0          0         37         74       73.5       43.9      29.41       43.9        471       1934       -408       0.73       0.00       0.00      0.000
5:12am            185          3          3         37         74       73.5       43.9      29.41       42.8        471       1934       -408       0.72       0.00       0.00      0.000
5:13am            185          0          3         37         74       73.5       43.9      29.41       43.9        471       1934       -408       0.71       0.00       0.00      0.000
5:14am            185          2          3         37         75       73.5       43.9      29.41       43.9        471       1850       -408       0.70       0.00       0.00      0.000
5:15am            185          0          3         37         75       73.5       43.9      29.41       43.9        471       1850       -408       0.68       0.00       0.00      0.000
5:16am            185          0          0         37         75       73.5       43.9      29.41       43.9        471       1850       -408       0.67       0.00       0.00      0.000
5:17am            185          1          2         37         75       73.3       43.9      29.41       43.9        471       1850       -408       0.66       0.00       0.00      0.000
5:18am            185          1          2         37         75       73.3       43.9      29.41       43.9        471       1850       -408       0.65       0.00       0.00      0.000
5:19am            185          1          2         37         75       73.3       43.9      29.41       43.9        471       1850       -408       0.64       0.00       0.00      0.000
5:20am            185          0          2         37         75       73.3       44.0      29.41       44.0        471       1850       -401       0.73       0.00       0.00      0.000
5:21am            185          1          1         36         76       73.3       44.0      29.41       44.0        471       1767       -401       0.72       0.00       0.00      0.000
5:22am            185          0          1         37         75       73.3       44.0      29.41       44.0        471       1850       -401       0.71       0.00       0.00      0.000
5:23am            185          0          1         37         75       73.3       43.9      29.41       43.9        471       1850       -408       0.59       0.00       0.00      0.000
5:24am            185          0          1         37         75       73.3       44.0      29.41       44.0        471       1850       -401       0.68       0.00       0.00      0.000
5:25am            185          0          1         37         76       73.3       44.0      29.41       44.0        471       1767       -401       0.67       0.00       0.00      0.000
5:26am            185          0          0         37         76       73.3       44.0      29.41       44.0        472       1767       -400       0.66       0.00       0.00      0.000
5:27am            185          0          0         37         77       73.3       44.0      29.41       44.0        472       1684       -400       0.65       0.00       0.00      0.000
5:28am            185          2          2         37         77       73.3       43.9      29.41       43.9        472       1683       -407       0.54       0.00       0.00      0.000
5:29am            185          2          2         37         77       73.3       43.9      29.41       43.9        472       1683       -407       0.53       0.00       0.00      0.000
5:30am            185          0          2         37         77       73.3       43.8      29.41       43.8        473       1682       -413       0.42       0.00       0.00      0.000
5:31am            185          0          0         37         77       73.3       43.8      29.41       43.8        474       1682       -411       0.42       0.00       0.00      0.000
5:32am            185          0          0         37         77       73.3       43.8      29.41       43.8        474       1682       -411       0.41       0.00       0.00      0.000
5:33am            185          0          0         36         77       73.3       43.7      29.41       43.7        474       1681       -418       0.30       0.00       0.00      0.000
5:34am            185          0          0         37         76       73.3       43.7      29.41       43.7        474       1764       -418       0.30       0.00       0.00      0.000
5:35am            185          0          0         36         76       73.3       43.7      29.41       43.7        475       1764       -417       0.29       0.00       0.00      0.000
5:36am            185          1          1         36         76       73.3       43.6      29.41       43.6        475       1763       -424       0.19       0.00       0.00      0.000
5:37am            185          0          1         37         76       73.3       43.6      29.41       43.6        474       1763       -425       0.19       0.00       0.00      0.000
5:38am            185          0          1         36         77       73.3       43.6      29.41       43.6        474       1681       -425       0.18       0.00       0.00      0.000
5:39am            185          0          1         36         77       73.3       43.6      29.41       43.6        474       1681       -425       0.18       0.00       0.00      0.000
5:40am            185          0          1         37         77       73.3       43.6      29.41       43.6        474       1681       -425       0.18       0.00       0.00      0.000
5:41am            185          2          2         37         77       73.3       43.5      29.41       43.5        474       1680       -432       0.08       0.00       0.00      0.000
5:42am            185          2          2         36         77       73.3       43.5      29.41       43.5        474       1680       -432       0.07       0.00       0.00      0.000
5:43am            185          1          3         37         77       73.3       43.5      29.41       43.5        474       1680       -432       0.07       0.00       0.00      0.000
5:44am            185          1          3         36         77       73.3       43.6      29.41       43.6        474       1681       -425       0.17       0.00       0.00      0.000
5:45am            185          0          3         36         77       73.3       43.5      29.41       43.5        474       1680       -432       0.07       0.00       0.00      0.000
5:46am            185          1          2         37         77       73.3       43.6      29.41       43.6        473       1681       -426       0.16       0.00       0.00      0.000
5:47am            185          1          3         36         77       73.3       43.6      29.41       43.6        473       1681       -426       0.16       0.00       0.00      0.000
5:48am            185          2          3         37         77       73.3       43.6      29.41       43.6        473       1681       -426       0.16       0.00       0.00      0.000
5:49am            185          1          3         36         77       73.3       43.6      29.41       43.6        473       1681       -426       0.16       0.00       0.00      0.000
5:50am            185          0          3         37         77       73.3       43.6      29.41       43.6        473       1681       -426       0.15       0.00       0.00      0.000
5:51am            185          2          2         37         77       73.3       43.6      29.41       43.6        473       1681       -426       0.15       0.00       0.00      0.000
5:52am            185          1          2         37         76       73.3       43.7      29.41       43.7        473       1764       -419       0.25       0.00       0.00      0.000
5:53am            185          1          3         37         76       73.3       43.7      29.41       43.7        474       1764       -418       0.24       0.00       0.00      0.000
5:54am            185          2          3         36         76       73.3       43.8      29.41       43.8        474       1765       -411       0.34       0.00       0.00      0.000
5:55am            185          2          3         37         77       73.3       43.8      29.41       43.8        475       1682       -410       0.33       0.00       0.00      0.000
5:56am            185          1          2         36         76       73.3       43.8      29.41       43.8        475       1765       -410       0.33       0.00       0.00      0.000
5:57am            185          1          2         37         77       73.3       43.9      29.41       43.9        476       1683       -402       0.42       0.00       0.00      0.000
5:58am            185          0          2         37         77       73.3       43.9      29.41       43.9        476       1683       -402       0.41       0.00       0.00      0.000
5:59am            185          0          2         37         77       73.3       44.0      29.41       44.0        477       1684       -393       0.51       0.00       0.00      0.000
6:00am            185          1          2         37         77       73.3       44.0      29.41       44.0        478       1684       -392       0.50       0.00       0.00      0.000
6:01am            185          0          1         36         77       73.3       44.0      29.41       44.0        478       1684       -392       0.49       0.00       0.00      0.000
6:02am            185          0          1         37         77       73.3       44.0      29.41       44.0        477       1684       -393       0.48       0.00       0.00      0.000
6:03am            185          0          1         37         77       73.3       44.0      29.41       44.0        476       1684       -394       0.47       0.00       0.00      0.000
6:04am            185          0          1         37         77       73.3       44.0      29.41       44.0        476       1684       -395       0.46       0.00       0.00      0.000
6:05am            185          1          2         37         77       73.3       44.2      29.41       44.2        476       1685       -381       0.66       0.00       0.00      0.000
6:06am            185          2          2         38         76       73.3       44.2      29.41       44.2        476       1768       -382       0.64       0.00       0.00      0.000
6:07am            185          1          3         38         76       73.3       44.4      29.41       44.4        476       1770       -367       0.83       0.00       0.00      0.000
6:08am            185          1          3         37         76       73.3       44.4      29.41       44.4        477       1770       -366       0.82       0.00       0.00      0.000
6:09am            185          1          3         37         76       73.3       44.5      29.41       44.5        477       1771       -359       0.91       0.00       0.00      0.000
6:10am            185          0          3         36         76       73.3       44.6      29.41       44.6        475       1771       -356       0.99       0.00       0.00      0.000
6:11am            185          2          2         37         76       73.3       44.6      29.41       44.6        476       1771       -355       0.97       0.00       0.00      0.000
6:12am            185          2          2         36         76       73.3       44.6      29.41       44.6        476       1771       -354       0.96       0.00       0.00      0.000
6:13am            185          0          2         37         76       73.3       44.7      29.41       44.7        476       1772       -348       1.04       0.00       0.00      0.000
6:14am            159          2          5         36         76       73.3       44.7      29.41       44.7        477       1772       -346       1.02       0.00       0.00      0.000
6:15am            159          0          5         37         76       73.3       44.8      29.41       44.8        478       1773       -338       1.11       0.00       0.00      0.000
6:16am            159          0          0         37         76       73.3       44.9      29.41       44.9        477       1774       -332       1.19       0.00       0.00      0.000
6:17am            158          2          4         37         76       73.3       45.0      29.40       45.0        480       1774       -322       1.27       0.00       0.00      0.000
6:18am            159          1          4         36         75       73.3       45.1      29.41       45.1        479       1859       -316       1.34       0.00       0.00      0.000
6:19am            159          1          4         37         75       73.3       45.1      29.41       45.1        478       1859       -317       1.32       0.00       0.00      0.000
6:20am            159          1          4         36         75       73.1       45.2      29.41       45.2        478       1860       -311       1.40       0.00       0.00      0.000
6:21am            159          1          1         37         75       73.1       45.3      29.41       45.3        478       1861       -304       1.48       0.00       0.00      0.000
6:22am            159          1          2         37         75       73.1       45.4      29.41       45.4        479       1862       -296       1.55       0.00       0.00      0.000
6:23am            159          2          2         37         75       73.1       45.4      29.40       45.4        480       1862       -295       1.52       0.00       0.00      0.000
6:24am            159          2          2         37         75       73.1       45.4      29.40       45.4        480       1862       -295       1.50       0.00       0.00      0.000
6:25am            159          1          2         36         75       73.1       45.5      29.40       45.5        480       1863       -288       1.57       0.00       0.00      0.000
6:26am            159          1          1         36         75       73.1       45.6      29.40       45.6        480       1864       -281       1.64       0.00       0.00      0.000
6:27am            159          1          1         36         75       73.1       45.6      29.40       45.6        480       1864       -281       1.62       0.00       0.00      0.000
6:28am            159          1          2         37         75       73.1       45.6      29.40       45.6        481       1864       -280       1.59       0.00       0.00      0.000
6:29am            159          1          2         37         75       73.1       45.6      29.40       45.6        482       1864       -279       1.57       0.00       0.00      0.000
6:30am            159          1          2         37         75       73.1       45.6      29.40       45.6        482       1864       -279       1.54       0.00       0.00      0.000
6:31am            159          0          1         36         75       73.1       45.7      29.40       45.7        481       1864       -273       1.61       0.00       0.00      0.000
6:32am            159          0          1         36         75       73.1       45.7      29.41       45.7        479       1864       -276       1.59       0.00       0.00      0.000
6:33am            159          0          1         36         75       73.1       45.7      29.41       45.7        479       1864       -276       1.56       0.00       0.00      0.000
6:34am            159          0          1         36         75       73.1       45.7      29.41       45.7        478       1864       -277       1.53       0.00       0.00      0.000
6:35am            159          0          1         36         74       73.1       45.8      29.41       45.8        478       1951       -270       1.61       0.00       0.00      0.000
6:36am            159          0          0         36         74       73.1       45.7      29.41       45.7        478       1950       -277       1.48       0.00       0.00      0.000
6:37am            159          0          0         36         74       73.1       45.7      29.41       45.7        478       1950       -277       1.46       0.00       0.00      0.000
6:38am            159          1          1         36         74       73.1       45.7      29.41       45.7        479       1950       -276       1.43       0.00       0.00      0.000
6:39am            159          0          1         36         74       73.1       45.8      29.40       45.8        480       1951       -268       1.51       0.00       0.00      0.000
6:40am            159          1          1         36         74       73.1       45.7      29.40       45.7        481       1950       -273       1.38       0.00       0.00      0.000
6:41am            159          2          3         36         74       73.1       45.7      29.40       45.7        482       1950       -272       1.36       0.00       0.00      0.000
6:42am            159          1          3         36         74       73.1       45.8      29.40       45.8        483       1951       -264       1.44       0.00       0.00      0.000
6:43am            159          1          3         37         75       73.1       45.8      29.40       45.8        483       1865       -264       1.41       0.00       0.00      0.000
6:44am            159          1          3         37         75       73.1       45.8      29.40       45.8        482       1865       -265       1.39       0.00       0.00      0.000
6:45am            159          0          3         36         75       73.1       45.9      29.40       45.9        483       1866       -257       1.46       0.00       0.00      0.000
6:46am            159          0          2         37         75       73.1       45.9      29.40       45.9        483       1866       -257       1.44       0.00       0.00      0.000
6:47am            159          0          2         37         75       73.1       45.9      29.40       45.9        483       1866       -257       1.42       0.00       0.00      0.000
6:48am            159          0          2         36         75       73.1       46.0      29.40       46.0        484       1867       -250       1.49       0.00       0.00      0.000
6:49am            159          0          2         36         75       73.1       46.0      29.40       46.0        483       1867       -251       1.47       0.00       0.00      0.000
6:50am            159          1          2         36         76       73.1       46.0      29.40       46.0        482       1782       -252       1.44       0.00       0.00      0.000
6:51am            159          0          1         37         75       73.1       46.1      29.40       46.1        482       1868       -245       1.52       0.00       0.00      0.000
6:52am            159          1          1         36         75       73.1       46.1      29.40       46.1        482       1868       -245       1.49       0.00       0.00      0.000
6:53am            159          2          2         36         75       73.1       46.2      29.40       46.2        482       1869       -238       1.57       0.00       0.00      0.000
6:54am            159          2          2         36         76       73.1       46.2      29.40       46.2        482       1784       -238       1.54       0.00       0.00      0.000
6:55am            159          1          2         37         75       73.1       46.2      29.40       46.2        483       1869       -237       1.52       0.00       0.00      0.000
6:56am            159          1          3         37         75       73.1       46.3      29.40       46.3        482       1869       -232       1.59       0.00       0.00      0.000
6:57am            159          1          3         36         75       73.1       46.3      29.40       46.3        482       1869       -232       1.57       0.00       0.00      0.000
6:58am            159          1          3         36         75       73.1       46.3      29.40       46.3        482       1869       -232       1.54       0.00       0.00      0.000
6:59am            159          2          3         37         75       73.1       46.4      29.40       46.4        481       1870       -226       1.62       0.00       0.00      0.000
7:00am            159          0          3         37         75       73.1       46.4      29.40       46.4        481       1870       -226       1.59       0.00       0.00      0.000
7:01am            159          0          1         37         75       73.1       46.4      29.40       46.4        480       1870       -227       1.56       0.00       0.00      0.000
7:02am            159          0          1         37         75       73.1       46.5      29.41       46.5        479       1871       -221       1.64       0.00       0.00      0.000
7:03am            159          0          1         36         75       73.1       46.5      29.41       46.5        478       1871       -223       1.61       0.00       0.00      0.000
7:04am            159          0          1         36         75       73.1       46.5      29.41       46.5        477       1871       -224       1.58       0.00       0.00      0.000
7:05am            160          1          3         36         75       73.1       46.6      29.41       46.6        478       1872       -216       1.66       0.00       0.00      0.000
7:06am            160          2          2         36         76       73.1       46.7      29.41       46.7        477       1788       -210       1.73       0.00       0.00      0.000
7:07am            160          0          2         36         76       73.1       46.7      29.41       46.7        476       1788       -212       1.70       0.00       0.00      0.000
7:08am            160          1          2         36         76       73.1       46.7      29.41       46.7        474       1788       -215       1.67       0.00       0.00      0.000
7:09am            160          1          2         36         77       73.1       46.7      29.41       46.7        473       1704       -216       1.64       0.00       0.00      0.000
7:10am            160          1          2         36         77       73.1       46.7      29.41       46.7        473       1704       -216       1.62       0.00       0.00      0.000
7:11am            160          2          4         36         78       73.1       46.6      29.41       46.6        474       1620       -222       1.49       0.00       0.00      0.000
7:12am            160          1          4         36         77       73.1       46.7      29.41       46.7        475       1704       -214       1.56       0.00       0.00      0.000
7:13am            160          1          4         36         77       73.1       46.7      29.41       46.7        475       1704       -214       1.54       0.00       0.00      0.000
7:14am            160          1          4         36         77       73.1       46.7      29.41       46.7        474       1704       -215       1.51       0.00       0.00      0.000
7:15am            160          3          4         36         77       73.1       46.8      29.41       46.1        475       1705       -207       1.59       0.00       0.00      0.000
7:16am            160          1          3         36         77       73.1       46.8      29.41       46.8        474       1705       -208       1.56       0.00       0.00      0.000
7:17am            160          0          3         37         77       73.1       47.0      29.41       47.0        474       1706       -195       1.73       0.00       0.00      0.000
7:18am            160          1          3         36         76       73.1       47.0      29.41       47.0        474       1790       -195       1.71       0.00       0.00      0.000
7:19am            178          2          3         36         76       73.1       47.1      29.41       47.1        475       1791       -187       1.78       0.00       0.00      0.000
7:20am            178          1          3         37         76       73.1       47.2      29.41       47.2        474       1792       -181       1.85       0.00       0.00      0.000
7:21am            178          1          1         36         76       73.1       47.3      29.41       47.3        476       1793       -172       1.92       0.00       0.00      0.000
7:22am            188          0          2         36         76       73.1       47.3      29.41       47.3        476       1793       -172       1.88       0.00       0.00      0.000
7:23am            189          1          3         36         76       73.1       47.4      29.41       47.4        476       1793       -164       1.95       0.00       0.00      0.000
7:24am            188          0          4         36         76       73.1       47.5      29.41       47.5        476       1794       -157       2.02       0.00       0.00      0.000
7:25am            187          0          4         36         76       73.1       47.6      29.41       47.6        477       1795       -149       2.09       0.00       0.00      0.000
7:26am            187          2          2         36         76       73.1       47.7      29.41       47.7        477       1796       -143       2.15       0.00       0.00      0.000
7:27am            120          3          6         36         76       73.1       47.8      29.41       47.2        477       1797       -136       2.22       0.00       0.00      0.000
7:28am            191          4          6         36         76       73.1       47.9      29.41       46.4        478       1797       -128       2.28       0.00       0.00      0.000
7:29am            192          0          6         36         76       73.1       48.1      29.41       48.1        479       1799       -113       2.44       0.00       0.00      0.000
7:30am            170          0          6         36         76       73.1       48.2      29.41       48.2        479       1800       -107       2.50       0.00       0.00      0.000
7:31am            208          1          3         37         76       73.1       48.3      29.40       48.3        480       1800        -99       2.55       0.00       0.00      0.000
7:32am            229          2          3         36         75       73.1       48.4      29.40       48.4        481       1887        -91       2.61       0.00       0.00      0.000
7:33am            229          1          3         36         76       73.1       48.6      29.40       48.6        481       1803        -78       2.77       0.00       0.00      0.000
7:34am            229          1          3         36         76       73.1       48.7      29.40       48.7        481       1804        -71       2.82       0.00       0.00      0.000
7:35am            191          6          6         36         75       73.1       48.7      29.40       46.1        480       1889        -72       2.77       0.00       0.00      0.000
7:36am            202          4          7         36         75       73.1       48.9      29.40       47.6        482       1891        -56       2.92       0.00       0.00      0.000
7:37am            148          2          7         36         75       73.1       49.0      29.40       49.0        484       1892        -47       2.97       0.00       0.00      0.000
7:38am            243          1          7         36         74       73.1       49.2      29.40       49.2        485       1980        -33       3.12       0.00       0.00      0.000
7:39am            222          1          7         36         75       73.1       49.3      29.40       49.3        485       1894        -26       3.17       0.00       0.00      0.000
7:40am            223          0          7         36         75       73.1       49.4      29.40       49.4        485       1895        -19       3.22       0.00       0.00      0.000
7:41am            222          0          2         37         75       73.1       49.5      29.40       49.5        485       1896        -13       3.27       0.00       0.00      0.000
7:42am            219          1          3         36         74       73.1       49.5      29.40       49.5        485       1983        -13       3.21       0.00       0.00      0.000
7:43am            156          3          5         36         75       73.1       49.6      29.40       49.2        485       1897         -6       3.26       0.00       0.00      0.000
7:44am            156          0          5         36         74       73.1       49.7      29.40       49.7        485       1985          1       3.30       0.00       0.00      0.000
7:45am            156          1          5         37         74       73.1       49.8      29.40       49.8        486       1985          9       3.34       0.00       0.00      0.000
7:46am            156          1          2         37         74       73.1       50.0      29.40       50.0        486       1987         22       3.49       0.00       0.00      0.000
7:47am            156          1          2         36         75       73.1       50.1      29.40       50.1        486       1901         29       3.53       0.00       0.00      0.000
7:48am            193          3          4         37         74       73.1       50.1      29.40       49.8        486       1988         29       3.47       0.00       0.00      0.000
7:49am            218          3          9         37         73       73.1       50.1      29.40       49.8        486       2076         29       3.42       0.00       0.00      0.000
7:50am            187          2          9         36         73       73.1       50.3      29.40       50.3        486       2078         42       3.56       0.00       0.00      0.000
7:51am            243          1          4         36         73       73.1       50.4      29.40       50.4        486       2079         49       3.60       0.00       0.00      0.000
7:52am            242          2          6         36         74       73.1       50.5      29.40       50.5        485       1991         54       3.63       0.00       0.00      0.000
7:53am            236          1          6         36         73       73.1       50.6      29.40       50.6        483       2081         59       3.67       0.00       0.00      0.000
7:54am            236          1          6         36         73       73.1       50.6      29.40       50.6        482       2081         58       3.61       0.00       0.00      0.000
7:55am            236          1          6         36         74       73.1       50.7      29.40       50.7        481       1993         63       3.65       0.00       0.00      0.000
7:56am            189          2          4         36         73       73.1       50.8      29.40       50.8        481       2083         70       3.69       0.00       0.00      0.000
7:57am            189          1          4         36         73       73.1       50.9      29.40       50.9        482       2083         78       3.73       0.00       0.00      0.000
7:58am            209          5          8         37         73       73.1       50.9      29.40       49.3        482       2083         78       3.67       0.00       0.00      0.000
7:59am            210          0          8         36         73       73.1       51.0      29.40       51.0        482       2084         85       3.71       0.00       0.00      0.000
8:00am            210          1          8         36         73       73.1       51.1      29.40       51.1        483       2085         92       3.74       0.00       0.00      0.000
8:01am            226          3          3         36         72       73.1       51.2      29.40       51.0        484       2176        100       3.78       0.00       0.00      0.000
8:02am            226          1          3         36         72       73.1       51.3      29.40       51.3        485       2177        108       3.82       0.00       0.00      0.000
8:03am            216          4          9         36         72       73.1       51.4      29.40       50.5        485       2178        115       3.86       0.00       0.00      0.000
8:04am            222          5          9         36         72       73.1       51.4      29.40       49.9        485       2178        115       3.79       0.00       0.00      0.000
8:05am            191          3          9         36         71       73.1       51.5      29.40       51.4        486       2270        122       3.83       0.00       0.00      0.000
8:06am            191          2          4         36         71       73.1       51.6      29.40       51.6        485       2271        128       3.87       0.00       0.00      0.000
8:07am            219          0          4         37         71       73.1       51.7      29.40       51.7        486       2272        136       3.90       0.00       0.00      0.000
8:08am            221          5          8         37         71       73.1       51.8      29.40       50.3        486       2273        142       3.93       0.00       0.00      0.000
8:09am            178          1          8         36         70       73.1       51.9      29.40       51.9        485       2366        148       3.97       0.00       0.00      0.000
8:10am            226          3          8         36         70       73.1       51.9      29.40       51.8        486       2366        149       3.90       0.00       0.00      0.000
8:11am            156          6          6         36         70       73.1       52.0      29.40       50.0        486       2367        156       3.94       0.00       0.00      0.000
8:12am            181          3          6         36         70       73.1       52.1      29.40       52.1        486       2368        163       3.97       0.00       0.00      0.000
8:13am            181          2          6         36         70       73.1       52.2      29.40       52.2        486       2369        169       4.00       0.00       0.00      0.000
8:14am            187          5          6         37         70       73.1       52.3      29.40       50.9        486       2370        176       4.04       0.00       0.00      0.000
8:15am            174          3          6         36         70       73.1       52.4      29.40       52.4        486       2371        183       4.07       0.00       0.00      0.000
8:16am            175          3          3         37         70       73.1       52.5      29.40       52.5        486       2372        189       4.10       0.00       0.00      0.000
8:17am            224          1          3         36         70       73.1       52.5      29.40       52.5        486       2372        189       4.04       0.00       0.00      0.000
8:18am            213          0          3         36         70       73.1       52.6      29.40       52.6        486       2373        196       4.07       0.00       0.00      0.000
8:19am            202          1          3         36         70       73.1       52.6      29.40       52.6        486       2373        196       4.00       0.00       0.00      0.000
8:20am            139          2          3         36         70       73.0       52.7      29.40       52.7        486       2374        202       4.03       0.00       0.00      0.000
8:21am            148          0          5         36         69       73.1       52.8      29.40       52.8        487       2469        210       4.07       0.00       0.00      0.000
8:22am            187          3          5         36         69       73.0       52.8      29.40       52.8        487       2469        210       4.00       0.00       0.00      0.000
8:23am            187          3          5         36         69       73.0       52.9      29.40       52.9        487       2470        217       4.03       0.00       0.00      0.000
8:24am            187          1          5         38         69       73.0       53.0      29.40       53.0        486       2471        222       4.07       0.00       0.00      0.000
8:25am            202          2          5         37         70       73.0       53.1      29.40       53.1        486       2378        229       4.10       0.00       0.00      0.000
8:26am            212          4          5         37         69       73.1       53.2      29.40       52.6        487       2473        237       4.13       0.00       0.00      0.000
8:27am            339          2          5         36         68       73.0       53.2      29.40       53.2        487       2568        237       4.06       0.00       0.00      0.000
8:28am            179          1          5         36         68       73.0       53.2      29.40       53.2        487       2568        237       4.00       0.00       0.00      0.000
8:29am            220          1          5         36         68       73.0       53.3      29.40       53.3        487       2569        244       4.02       0.00       0.00      0.000
8:30am            226          3          8         37         67       73.0       53.4      29.40       53.4        487       2667        250       4.06       0.00       0.00      0.000
8:31am            229          1          3         37         67       73.0       53.4      29.40       53.4        487       2667        250       3.99       0.00       0.00      0.000
8:32am            216          4          6         36         68       73.0       53.5      29.40       52.9        487       2572        257       4.03       0.00       0.00      0.000
8:33am            176          6          6         36         67       73.0       53.5      29.40       51.8        487       2668        257       3.96       0.00       0.00      0.000
8:34am            151          5          6         36         67       73.0       53.6      29.40       52.4        487       2669        263       4.00       0.00       0.00      0.000
8:35am            150          2          6         36         67       73.0       53.6      29.40       53.6        487       2669        263       3.93       0.00       0.00      0.000
8:36am            166          6          7         36         67       73.0       53.6      29.40       52.0        487       2669        263       3.87       0.00       0.00      0.000
8:37am            226          1          9         37         66       73.0       53.6      29.40       53.6        486       2767        262       3.80       0.00       0.00      0.000
8:38am            314          1          9         36         68       73.0       53.6      29.40       53.6        486       2573        262       3.74       0.00       0.00      0.000
8:39am            254          1          9         37         67       73.0       53.7      29.40       53.7        487       2670        270       3.78       0.00       0.00      0.000
8:40am            174          2          9         37         68       73.0       53.8      29.40       53.8        487       2575        277       3.81       0.00       0.00      0.000
8:41am            237          3          5         36         67       73.0       53.9      29.40       53.9        486       2673        282       3.85       0.00       0.00      0.000
8:42am            237          2          5         36         67       73.0       54.0      29.40       54.0        487       2674        290       3.88       0.00       0.00      0.000
8:43am            218          1          5         37         67       73.0       54.0      29.40       54.0        487       2674        290       3.82       0.00       0.00      0.000
8:44am            218          2          5         36         67       73.0       54.1      29.40       54.1        487       2675        297       3.85       0.00       0.00      0.000
8:45am            214          3          5         36         68       73.0       54.2      29.40       54.2        487       2579        303       3.89       0.00       0.00      0.000
8:46am            128          7          7         37         67       73.0       54.3      29.40       52.4        487       2677        310       3.93       0.00       0.00      0.000
8:47am            256          3          7         37         66       73.0       54.4      29.40       54.4        487       2777        317       3.96       0.00       0.00      0.000
8:48am            170          1          7         36         66       73.0       54.4      29.40       54.4        487       2777        317       3.89       0.00       0.00      0.000
8:49am            170          2          7         36         66       73.0       54.5      29.40       54.5        487       2778        323       3.93       0.00       0.00      0.000
8:50am            222          3          7         36         67       73.0       54.5      29.40       54.5        487       2680        323       3.87       0.00       0.00      0.000
8:51am            231          4          5         36         66       73.0       54.6      29.40       54.2        487       2779        330       3.90       0.00       0.00      0.000
8:52am            169          4          5         36         66       73.0       54.7      29.40       54.3        487       2780        336       3.94       0.00       0.00      0.000
8:53am            141          2          5         37         66       73.0       54.7      29.40       54.7        487       2780        336       3.87       0.00       0.00      0.000
8:54am            203          2          5         36         66       73.0       54.8      29.40       54.8        487       2782        343       3.90       0.00       0.00      0.000
8:55am            271          2          5         36         66       73.0       54.9      29.40       54.9        488       2783        351       3.94       0.00       0.00      0.000
8:56am            271          1          3         36         67       73.0       55.0      29.40       55.0        488       2686        357       3.97       0.00       0.00      0.000
8:57am            271          0          3         37         67       73.0       55.2      29.40       55.2        488       2688        371       4.11       0.00       0.00      0.000
8:58am            271          0          3         36         67       73.0       55.3      29.40       55.3        488       2689        377       4.14       0.00       0.00      0.000
8:59am            270          2          3         36         67       73.0       55.4      29.40       55.4        488       2690        384       4.16       0.00       0.00      0.000
9:00am            270          0          3         36         66       73.0       55.4      29.40       55.4        488       2789        384       4.10       0.00       0.00      0.000
9:01am            270          1          2         36         66       73.1       55.5      29.40       55.5        488       2790        391       4.13       0.00       0.00      0.000
9:02am            291          2          6         37         66       73.0       55.7      29.40       55.7        488       2792        404       4.26       0.00       0.00      0.000
9:03am            177          2          6         36         65       73.0       55.7      29.40       55.7        488       2892        404       4.19       0.00       0.00      0.000
9:04am            150          3          6         36         65       73.0       55.8      29.40       55.8        488       2894        410       4.22       0.00       0.00      0.000
9:05am            265          2          8         36         64       73.0       55.9      29.40       55.9        488       2996        417       4.25       0.00       0.00      0.000
9:06am            220          3          5         37         64       73.1       55.8      29.40       55.8        488       2995        410       4.08       0.00       0.00      0.000
9:07am            179          4          6         36         64       73.0       55.9      29.40       55.7        488       2996        417       4.11       0.00       0.00      0.000
9:08am            147          5          7         36         64       73.1       55.9      29.40       55.1        488       2996        417       4.04       0.00       0.00      0.000
9:09am            253          2          7         37         64       73.1       55.9      29.40       55.9        488       2996        418       3.98       0.00       0.00      0.000
9:10am            199          2          7         36         65       73.1       56.0      29.40       56.0        488       2896        425       4.01       0.00       0.00      0.000
9:11am            199          0          2         36         67       73.1       56.0      29.39       56.0        489       2697        426       3.94       0.00       0.00      0.000
9:12am            199          2          2         37         66       73.1       56.2      29.39       56.2        489       2798        439       4.08       0.00       0.00      0.000
9:13am            189          7          7         37         65       73.1       56.3      29.39       54.8        489       2900        446       4.11       0.00       0.00      0.000
9:14am            241          1          7         36         64       73.1       56.3      29.39       56.3        489       3002        446       4.04       0.00       0.00      0.000
9:15am            226          2          7         36         64       73.1       56.4      29.39       56.4        489       3003        452       4.07       0.00       0.00      0.000
9:16am            226          1          3         37         65       73.1       56.5      29.40       56.5        488       2902        458       4.10       0.00       0.00      0.000
9:17am            226          0          3         36         65       73.1       56.6      29.39       56.6        490       2904        467       4.13       0.00       0.00      0.000
9:18am            187          5          7         36         64       73.1       56.7      29.39       56.1        490       3007        473       4.17       0.00       0.00      0.000
9:19am            193          3          7         36         63       73.1       56.8      29.39       56.8        490       3111        480       4.20       0.00       0.00      0.000
9:20am            166          4          7         36         64       73.1       56.8      29.39       56.7        490       3008        480       4.13       0.00       0.00      0.000
9:21am            250          3          5         36         63       73.1       56.8      29.39       56.8        489       3111        479       4.06       0.00       0.00      0.000
9:22am            166          6          8         36         63       73.1       56.8      29.40       55.8        488       3111        478       3.99       0.00       0.00      0.000
9:23am            199          3          8         36         63       73.1       56.8      29.39       56.8        490       3111        480       3.93       0.00       0.00      0.000
9:24am            162          1          8         37         63       73.1       56.8      29.39       56.8        489       3111        479       3.86       0.00       0.00      0.000
9:25am            133          4          8         37         63       73.1       56.8      29.39       56.7        489       3111        479       3.80       0.00       0.00      0.000
9:26am            169          2          7         36         63       73.1       56.8      29.39       56.8        491       3111        481       3.74       0.00       0.00      0.000
9:27am            266          2          7         37         63       73.1       56.9      29.39       56.9        491       3113        488       3.77       0.00       0.00      0.000
9:28am            154          6          7         37         63       73.1       57.0      29.39       56.0        490       3114        493       3.81       0.00       0.00      0.000
9:29am            189          5          7         37         62       73.1       57.0      29.39       56.4        491       3219        494       3.75       0.00       0.00      0.000
9:30am            141          5          7         37         62       73.1       57.1      29.39       56.6        492       3220        502       3.79       0.00       0.00      0.000
9:31am            164          5          6         37         62       73.1       57.2      29.39       56.7        492       3222        508       3.82       0.00       0.00      0.000
9:32am            148          6          7         37         62       73.1       57.2      29.39       56.2        493       3222        510       3.76       0.00       0.00      0.000
9:33am            203          5          7         36         62       73.1       57.3      29.39       56.8        495       3223        518       3.80       0.00       0.00      0.000
9:34am            195          1          7         36         62       73.1       57.4      29.39       57.4        493       3224        523       3.83       0.00       0.00      0.000
9:35am            212          3          7         37         62       73.1       57.4      29.39       57.4        494       3224        524       3.77       0.00       0.00      0.000
9:36am            209          2          3         37         63       73.1       57.5      29.39       57.5        497       3121        534       3.81       0.00       0.00      0.000
9:37am            217          4          6         36         62       73.1       57.7      29.39       57.7        497       3228        547       3.94       0.00       0.00      0.000
9:38am             93          5          6         37         60       73.1       57.8      29.38       57.4        499       3445        556       3.97       0.00       0.00      0.000
9:39am            212          1          6         37         60       73.1       57.8      29.38       57.8        499       3445        556       3.91       0.00       0.00      0.000
9:40am            212          1          6         36         61       73.1       57.9      29.38       57.9        500       3338        564       3.94       0.00       0.00      0.000
9:41am             84          2          3         36         62       73.1       58.1      29.38       58.1        500       3234        577       4.08       0.00       0.00      0.000
9:42am            179          7          7         37         63       73.1       58.4      29.38       57.3        500       3133        596       4.31       0.00       0.00      0.000
9:43am            183          3         11         37         59       73.1       58.4      29.38       58.4        500       3564        596       4.23       0.00       0.00      0.000
9:44am            220          3         11         36         60       73.1       58.5      29.38       58.5        499       3455        602       4.26       0.00       0.00      0.000
9:45am            168          6         11         36         59       73.1       58.6      29.38       57.9        500       3567        610       4.29       0.00       0.00      0.000
9:46am            196          2          6         37         59       73.1       58.6      29.38       58.6        500       3567        610       4.22       0.00       0.00      0.000
9:47am            168          2          6         36         59       73.1       58.7      29.38       58.7        500       3568        616       4.25       0.00       0.00      0.000
9:48am            237          6          6         37         59       73.1       58.8      29.38       58.1        500       3570        624       4.28       0.00       0.00      0.000
9:49am            155          4          7         37         59       73.1       58.9      29.38       58.9        500       3571        630       4.31       0.00       0.00      0.000
9:50am            269          1          7         36         59       73.1       59.1      29.38       59.1        500       3574        644       4.44       0.00       0.00      0.000
9:51am            166          1          6         37         58       73.1       59.2      29.38       59.2        500       3688        650       4.46       0.00       0.00      0.000
9:52am            152          5          6         37         58       73.1       59.3      29.38       59.1        500       3690        657       4.49       0.00       0.00      0.000
9:53am            155          2          6         36         58       73.1       59.3      29.38       59.3        500       3690        657       4.41       0.00       0.00      0.000
9:54am            170          1          6         37         58       73.1       59.3      29.38       59.3        500       3690        657       4.34       0.00       0.00      0.000
9:55am            162          4          6         36         58       73.1       59.5      29.38       59.5        500       3693        670       4.46       0.00       0.00      0.000
9:56am            243          1          4         37         59       73.1       59.5      29.38       59.5        501       3581        671       4.39       0.00       0.00      0.000
9:57am            193          1          4         37         59       73.1       59.6      29.38       59.6        501       3582        677       4.42       0.00       0.00      0.000
9:58am            212          2          4         37         59       73.1       59.8      29.38       59.8        501       3585        691       4.54       0.00       0.00      0.000
9:59am            174          6          7         36         59       73.1       59.9      29.38       59.5        501       3587        697       4.57       0.00       0.00      0.000
10:00am           291          1          7         37         57       73.1       60.0      29.38       60.0        501       3815        704       4.59       0.00       0.00      0.000
10:01am            90          4          5         37         56       73.1       60.1      29.38       60.1        501       3933        710       4.62       0.00       0.00      0.000
10:02am           164          5          7         37         56       73.1       60.2      29.38       60.2        501       3934        717       4.64       0.00       0.00      0.000
10:03am           255          3          7         37         57       73.1       60.2      29.38       60.2        501       3818        717       4.56       0.00       0.00      0.000
10:04am           159          6          7         37         57       73.1       60.2      29.38       59.8        501       3818        717       4.48       0.00       0.00      0.000
10:05am           263          4          7         37         55       73.1       60.1      29.38       60.1        501       4051        710       4.31       0.00       0.00      0.000
10:06am           241          1          7         36         56       73.1       60.1      29.38       60.1        502       3933        711       4.24       0.00       0.00      0.000
10:07am           241          3          7         37         56       73.1       60.1      29.38       60.1        501       3933        710       4.17       0.00       0.00      0.000
10:08am           219          3          7         37         55       73.1       60.2      29.38       60.2        501       4052        717       4.20       0.00       0.00      0.000
10:09am           133          4          8         36         54       73.1       60.2      29.38       60.2        502       4172        718       4.13       0.00       0.00      0.000
10:10am           197          3          8         36         55       73.1       60.3      29.38       60.3        502       4054        724       4.16       0.00       0.00      0.000
10:11am           197          2          3         37         55       73.1       60.3      29.38       60.3        502       4054        724       4.09       0.00       0.00      0.000
10:12am           143          4          4         37         56       73.1       60.4      29.38       60.4        502       3938        731       4.12       0.00       0.00      0.000
10:13am           164          5          8         37         55       73.1       60.6      29.38       60.6        502       4059        744       4.26       0.00       0.00      0.000
10:14am           198          4          8         37         55       73.1       60.6      29.38       60.6        502       4059        744       4.19       0.00       0.00      0.000
10:15am           129          2          8         37         55       73.1       60.7      29.38       60.7        502       4061        750       4.22       0.00       0.00      0.000
10:16am           310          2          3         37         56       73.1       60.9      29.38       60.9        502       3946        764       4.34       0.00       0.00      0.000
10:17am           203          3          3         36         55       73.1       61.0      29.38       61.0        503       4066        771       4.37       0.00       0.00      0.000
10:18am           204          1          3         37         55       73.1       61.2      29.38       61.2        502       4070        783       4.50       0.00       0.00      0.000
10:19am           204          1          3         37         54       73.1       61.3      29.38       61.3        502       4192        790       4.52       0.00       0.00      0.000
10:20am           204          2          3         37         54       73.1       61.4      29.38       61.4        502       4194        796       4.55       0.00       0.00      0.000
10:21am            99          4          4         37         54       73.1       61.5      29.38       61.5        502       4195        803       4.57       0.00       0.00      0.000
10:22am           145          1          9         37         53       73.1       61.6      29.38       61.6        503       4320        810       4.59       0.00       0.00      0.000
10:23am           181          0          9         37         54       73.1       61.7      29.38       61.7        502       4199        816       4.62       0.00       0.00      0.000
10:24am           283          3          9         37         55       73.1       61.8      29.38       61.8        502       4080        822       4.64       0.00       0.00      0.000
10:25am           225          4          9         37         54       73.1       61.9      29.38       61.9        502       4203        829       4.66       0.00       0.00      0.000
10:26am           237          4          4         37         53       73.1       62.0      29.38       62.0        502       4327        835       4.68       0.00       0.00      0.000
10:27am           233          2          6         37         52       73.1       62.0      29.38       62.0        501       4452        834       4.61       0.00       0.00      0.000
10:28am           175          6          7         37         52       73.1       62.0      29.38       62.0        501       4452        834       4.53       0.00       0.00      0.000
10:29am           165          4          7         38         52       73.1       62.1      29.38       62.1        501       4454        841       4.55       0.00       0.00      0.000
10:30am           180          1          7         37         52       73.1       62.2      29.38       62.2        501       4456        847       4.58       0.00       0.00      0.000
10:31am           224          1          3         37         52       73.1       62.2      29.38       62.2        502       4456        848       4.50       0.00       0.00      0.000
10:32am           279          3          3         37         53       73.1       62.3      29.38       62.3        502       4333        855       4.53       0.00       0.00      0.000
10:33am           116          1          3         37         52       73.1       62.5      29.38       62.5        502       4461        868       4.65       0.00       0.00      0.000
10:34am           237          5          5         37         53       73.1       62.6      29.38       62.6        502       4338        874       4.68       0.00       0.00      0.000
10:35am           206          4          5         37         51       73.1       62.7      29.38       62.7        502       4592        881       4.69       0.00       0.00      0.000
10:36am           211          2          7         36         51       73.1       62.7      29.38       62.7        502       4592        881       4.62       0.00       0.00      0.000
10:37am           179          5          7         37         52       73.1       62.7      29.38       62.7        502       4465        881       4.54       0.00       0.00      0.000
10:38am           121          0          7         37         51       73.3       62.8      29.38       62.8        503       4594        888       4.56       0.00       0.00      0.000
10:39am           122          1          7         37         52       73.3       62.8      29.38       62.8        502       4467        887       4.49       0.00       0.00      0.000
10:40am           256          3          7         37         52       73.3       62.9      29.38       62.9        502       4469        894       4.51       0.00       0.00      0.000
10:41am           191          5          7         38         50       73.3       63.0      29.38       63.0        502       4728        900       4.54       0.00       0.00      0.000
10:42am           141          3          7         37         51       73.3       63.2      29.38       63.2        502       4602        913       4.66       0.00       0.00      0.000
10:43am           266          2          7         37         51       73.3       63.3      29.38       63.3        502       4604        920       4.68       0.00       0.00      0.000
10:44am           243          5          7         37         49       73.3       63.4      29.38       63.4        502       4868        926       4.70       0.00       0.00      0.000
10:45am           181          3          7         37         51       73.3       63.6      29.38       63.6        503       4610        940       4.83       0.00       0.00      0.000
10:46am           216          2          3         37         50       73.3       63.6      29.38       63.6        503       4740        940       4.75       0.00       0.00      0.000
10:47am           177          3          4         37         52       73.3       63.8      29.38       63.8        503       4486        953       4.87       0.00       0.00      0.000
10:48am           345          0          4         37         52       73.3       64.0      29.38       64.0        503       4490        966       4.98       0.00       0.00      0.000
10:49am           346          0          4         37         51       73.3       64.1      29.38       64.1        503       4620        973       5.00       0.00       0.00      0.000
10:50am           228          1          4         37         50       73.3       64.3      29.38       64.3        503       4754        986       5.12       0.00       0.00      0.000
10:51am           168          5          5         37         49       73.3       64.6      29.38       64.6        502       4893       1004       5.33       0.00       0.00      0.000
10:52am           153          1          5         37         49       73.3       64.7      29.38       64.7        503       4895       1012       5.34       0.00       0.00      0.000
10:53am           156          3          5         37         49       73.3       64.9      29.38       64.9        502       4899       1023       5.45       0.00       0.00      0.000
10:54am           195          5          6         37         49       73.3       65.0      29.38       65.0        502       4901       1030       5.46       0.00       0.00      0.000
10:55am           237          2          6         37         46       73.3       65.0      29.38       65.0        502       5315       1030       5.37       0.00       0.00      0.000
10:56am           167          6          7         37         46       73.3       64.8      29.38       64.8        502       5311       1017       5.08       0.00       0.00      0.000
10:57am           225          1          7         37         47       73.3       64.6      29.38       64.6        502       5166       1004       4.80       0.00       0.00      0.000
10:58am           254          3          7         37         48       73.3       64.5      29.38       64.5        502       5026        998       4.62       0.00       0.00      0.000
10:59am           192          2          7         37         47       73.3       64.3      29.38       64.3        503       5160        986       4.35       0.00       0.00      0.000
11:00am           143          5          8         38         47       73.3       64.2      29.38       64.2        503       5157        979       4.17       0.00       0.00      0.000
11:01am           122          4          5         37         47       73.3       64.1      29.38       64.1        503       5155        973       4.01       0.00       0.00      0.000
11:02am           285          5          6         37         48       73.3       64.1      29.38       64.1        505       5018        975       3.94       0.00       0.00      0.000
11:03am           235          3          6         37         48       73.3       64.0      29.38       64.0        506       5016        970       3.78       0.00       0.00      0.000
11:04am           143          3          6         37         49       73.3       64.1      29.38       64.1        505       4883        975       3.81       0.00       0.00      0.000
11:05am           160          1          6         37         48       73.3       64.2      29.38       64.2        505       5020        982       3.85       0.00       0.00      0.000
11:06am           184          1          3         37         48       73.3       64.3      29.38       64.3        506       5022        989       3.89       0.00       0.00      0.000
11:07am           211          3          4         37         48       73.3       64.5      29.37       64.5        508       5026       1004       4.02       0.00       0.00      0.000
11:08am           264          4          5         37         50       73.3       64.6      29.38       64.6        507       4760       1010       4.05       0.00       0.00      0.000
11:09am           100          2          5         37         48       73.3       64.8      29.37       64.8        508       5032       1024       4.18       0.00       0.00      0.000
11:10am            99          0          5         37         47       73.3       64.9      29.37       64.9        510       5173       1032       4.21       0.00       0.00      0.000
11:11am           133          2          3         37         48       73.3       65.1      29.37       65.1        510       5039       1045       4.34       0.00       0.00      0.000
11:12am           137          2          3         37         47       73.3       65.3      29.37       65.3        509       5181       1057       4.47       0.00       0.00      0.000
11:13am           135          4          4         37         47       73.3       65.5      29.37       65.5        511       5186       1072       4.60       0.00       0.00      0.000
11:14am           256          3          5         37         46       73.3       65.6      29.37       65.6        512       5329       1080       4.62       0.00       0.00      0.000
11:15am           206          4          7         37         47       73.3       65.7      29.37       65.7        509       5190       1083       4.64       0.00       0.00      0.000
11:16am           227          2          5         37         45       73.3       65.7      29.37       65.7        510       5475       1084       4.56       0.00       0.00      0.000
11:17am           240          3          5         37         44       73.3       65.6      29.37       65.6        512       5619       1080       4.39       0.00       0.00      0.000
11:18am           186          1          6         37         46       73.3       65.5      29.37       65.5        509       5327       1070       4.22       0.00       0.00      0.000
11:19am            79          5          6         37         48       73.3       65.5      29.37       65.5        511       5047       1072       4.15       0.00       0.00      0.000
11:20am           149          2          6         37         46       73.3       65.5      29.37       65.5        512       5327       1074       4.08       0.00       0.00      0.000
11:21am           210          2          5         37         46       73.3       65.5      29.37       65.5        513       5327       1076       4.01       0.00       0.00      0.000
11:22am           180          2          5         37         46       73.3       65.6      29.37       65.6        514       5329       1083       4.05       0.00       0.00      0.000
11:23am           180          1          5         37         48       73.3       65.7      29.37       65.7        512       5051       1088       4.08       0.00       0.00      0.000
11:24am           280          2          5         37         47       73.3       65.9      29.37       65.9        513       5194       1102       4.21       0.00       0.00      0.000
11:25am           310          1          5         37         47       73.3       66.0      29.37       66.0        513       5196       1108       4.24       0.00       0.00      0.000
11:26am           310          2          2         37         47       73.3       66.2      29.37       66.2        512       5201       1120       4.37       0.00       0.00      0.000
11:27am           324          3          3         37         48       73.3       66.4      29.37       66.4        514       5066       1135       4.50       0.00       0.00      0.000
11:28am           288          5          6         37         47       73.3       66.6      29.37       66.6        515       5210       1149       4.62       0.00       0.00      0.000
11:29am           282          1          6         37         47       73.3       66.7      29.37       66.7        513       5212       1153       4.64       0.00       0.00      0.000
11:30am           197          4          6         37         47       73.3       66.8      29.37       66.8        512       5214       1158       4.67       0.00       0.00      0.000
11:31am           195          1          6         37         45       73.3       66.8      29.37       66.8        514       5500       1161       4.59       0.00       0.00      0.000
11:32am           195          2          6         37         46       73.3       66.9      29.37       66.9        513       5358       1166       4.61       0.00       0.00      0.000
11:33am           195          1          6         37         47       73.5       67.0      29.37       67.0        515       5218       1175       4.64       0.00       0.00      0.000
11:34am           252          3          6         37         48       73.5       67.1      29.37       67.1        515       5081       1181       4.66       0.00       0.00      0.000
11:35am           268          3          6         37         48       73.5       67.2      29.37       67.2        516       5083       1189       4.68       0.00       0.00      0.000
11:36am           356          1          3         37         44       73.5       67.3      29.37       67.3        516       5659       1195       4.70       0.00       0.00      0.000
11:37am            81          3          3         37         45       73.5       67.5      29.36       67.5        518       5516       1210       4.82       0.00       0.00      0.000
11:38am           145          4          4         37         45       73.5       67.6      29.37       67.6        516       5518       1214       4.84       0.00       0.00      0.000
11:39am           190          0          6         37         45       73.5       67.7      29.37       67.7        517       5521       1222       4.86       0.00       0.00      0.000
11:40am           152          0          6         37         45       73.5       67.8      29.37       67.8        517       5523       1228       4.88       0.00       0.00      0.000
11:41am           152          0          1         37         46       73.5       67.9      29.37       67.9        517       5380       1235       4.90       0.00       0.00      0.000
11:42am           165          4          4         37         47       73.5       68.1      29.37       68.1        517       5242       1248       5.02       0.00       0.00      0.000
11:43am           225          2          6         37         44       73.5       68.1      29.36       68.1        518       5678       1249       4.93       0.00       0.00      0.000
11:44am           200          2          6         37         44       73.5       68.1      29.37       68.1        517       5678       1248       4.85       0.00       0.00      0.000
11:45am           179          7          8         37         43       73.5       68.0      29.37       68.0        517       5827       1241       4.68       0.00       0.00      0.000
11:46am           173          2          8         37         44       73.5       67.7      29.37       67.7        517       5669       1222       4.30       0.00       0.00      0.000
11:47am           189          3          8         37         44       73.5       67.5      29.37       67.5        517       5664       1209       4.03       0.00       0.00      0.000
11:48am           170          1          8         37         43       73.5       67.3      29.37       67.3        517       5810       1196       3.76       0.00       0.00      0.000
11:49am           202          0          8         37         44       73.5       67.2      29.37       67.2        517       5657       1190       3.61       0.00       0.00      0.000
11:50am           269          3          8         37         46       73.5       67.1      29.37       67.1        517       5362       1183       3.44       0.00       0.00      0.000
11:51am            92          2          4         37         45       73.5       67.1      29.36       67.1        518       5507       1185       3.39       0.00       0.00      0.000
11:52am            92          3          4         37         45       73.5       67.1      29.36       67.1        518       5507       1185       3.33       0.00       0.00      0.000
11:53am           180          3          4         37         46       73.5       67.3      29.36       67.3        518       5367       1197       3.48       0.00       0.00      0.000
11:54am           175          2          5         37         45       73.5       67.4      29.36       67.4        518       5514       1204       3.52       0.00       0.00      0.000
11:55am           177          3          6         37         46       73.5       67.6      29.36       67.6        518       5373       1217       3.66       0.00       0.00      0.000
11:56am           180          2          6         37         45       73.5       67.7      29.36       67.7        519       5521       1224       3.70       0.00       0.00      0.000
11:57am           333          4          6         37         46       73.5       67.8      29.36       67.8        518       5378       1230       3.73       0.00       0.00      0.000
11:58am           337          4          7         37         44       73.5       67.9      29.36       67.9        519       5673       1237       3.77       0.00       0.00      0.000
11:59am           212          2          7         37         45       73.5       67.8      29.36       67.8        519       5523       1231       3.61       0.00       0.00      0.000
12:00pm           162          1          7         37         43       73.5       67.8      29.36       67.8        519       5822       1231       3.55       0.00       0.00      0.000
12:01pm           251          3          5         37         45       73.5       67.7      29.36       67.7        520       5521       1225       3.39       0.00       0.00      0.000
12:02pm           254          1          5         37         45       73.5       67.7      29.36       67.7        521       5521       1227       3.33       0.00       0.00      0.000
12:03pm           254          0          5         37         44       73.5       67.7      29.36       67.7        522       5669       1228       3.28       0.00       0.00      0.000
12:04pm           254          0          5         37         45       73.5       67.9      29.36       67.9        523       5525       1242       3.42       0.00       0.00      0.000
12:05pm           135          2          5         37         45       73.5       68.0      29.36       68.0        523       5528       1248       3.47       0.00       0.00      0.000
12:06pm           317          3          3         37         45       73.5       68.2      29.36       68.2        524       5532       1263       3.61       0.00       0.00      0.000
12:07pm           355          1          6         37         44       73.5       68.3      29.35       68.3        527       5683       1273       3.65       0.00       0.00      0.000
12:08pm           310          0          6         37         44       73.5       68.4      29.35       68.4        527       5685       1279       3.69       0.00       0.00      0.000
12:09pm           310          1          6         37         44       73.5       68.5      29.35       68.5        527       5687       1286       3.73       0.00       0.00      0.000
12:10pm           288          2          6         37         45       73.5       68.6      29.35       68.6        527       5541       1292       3.76       0.00       0.00      0.000
12:11pm           257          2          2         37         46       73.5       68.7      29.35       68.7        527       5398       1299       3.80       0.00       0.00      0.000
12:12pm           258          4          5         37         45       73.5       68.9      29.36       68.9        525       5548       1309       3.93       0.00       0.00      0.000
12:13pm           300          2          5         37         43       73.5       68.9      29.36       68.9        525       5849       1309       3.87       0.00       0.00      0.000
12:14pm            55          3          5         37         42       73.5       68.9      29.35       68.9        528       6003       1313       3.81       0.00       0.00      0.000
12:15pm            55          0          5         37         43       73.5       68.8      29.35       68.8        530       5846       1308       3.63       0.00       0.00      0.000
12:16pm           240          4          4         37         43       73.5       68.8      29.35       68.8        530       5846       1308       3.58       0.00       0.00      0.000
12:17pm           232          4          5         37         42       73.5       68.8      29.35       68.8        531       6001       1310       3.52       0.00       0.00      0.000
12:18pm           128          6          6         37         44       73.5       68.7      29.35       68.7        530       5692       1302       3.37       0.00       0.00      0.000
12:19pm           157          7          9         37         43       73.5       68.5      29.35       68.5        530       5839       1289       3.11       0.00       0.00      0.000
12:20pm           224          7          9         37         43       73.5       68.2      29.35       68.2        531       5832       1271       2.76       0.00       0.00      0.000
12:21pm           173          4          7         37         44       73.5       67.9      29.35       67.9        531       5673       1252       2.42       0.00       0.00      0.000
12:22pm           173          4          7         37         45       73.5       67.8      29.35       67.8        531       5523       1245       2.28       0.00       0.00      0.000
12:23pm           157          1          7         37         46       73.5       67.9      29.35       67.9        531       5380       1252       2.34       0.00       0.00      0.000
12:24pm           294          3          7         37         45       73.5       67.9      29.35       67.9        531       5525       1252       2.30       0.00       0.00      0.000
12:25pm           256          1          7         37         46       73.5       68.2      29.35       68.2        531       5387       1271       2.56       0.00       0.00      0.000
12:26pm           216          4          4         37         46       73.5       68.4      29.35       68.4        531       5391       1284       2.72       0.00       0.00      0.000
12:27pm           202          1          4         37         44       73.5       68.5      29.35       68.5        532       5687       1291       2.77       0.00       0.00      0.000
12:28pm           135          3          4         37         45       73.5       68.7      29.35       68.7        532       5544       1304       2.92       0.00       0.00      0.000
12:29pm           247          1          4         37         45       73.5       68.8      29.35       68.8        532       5546       1311       2.97       0.00       0.00      0.000
12:30pm           171          3          7         37         43       73.5       68.9      29.35       68.9        532       5849       1317       3.02       0.00       0.00      0.000
12:31pm           251          1          4         37         45       73.6       69.0      29.35       69.0        532       5551       1323       3.07       0.00       0.00      0.000
12:32pm           258          3          6         37         45       73.5       69.1      29.35       69.1        532       5553       1330       3.12       0.00       0.00      0.000
12:33pm           271          0          6         37         44       73.6       69.1      29.35       69.1        532       5702       1330       3.07       0.00       0.00      0.000
12:34pm           259          1          6         37         44       73.6       69.3      29.35       69.3        532       5706       1343       3.22       0.00       0.00      0.000
12:35pm           310          3          6         37         44       73.6       69.4      29.35       69.4        532       5709       1349       3.26       0.00       0.00      0.000
12:36pm           340          1          3         37         43       73.6       69.4      29.35       69.4        532       5861       1349       3.21       0.00       0.00      0.000
12:37pm           136          4          5         37         43       73.6       69.5      29.35       69.5        535       5863       1359       3.26       0.00       0.00      0.000
12:38pm           190          4          5         37         43       73.6       69.4      29.35       69.4        535       5861       1352       3.10       0.00       0.00      0.000
12:39pm           169          4          8         37         43       73.6       69.4      29.35       69.4        536       5861       1354       3.05       0.00       0.00      0.000
12:40pm           324          3          8         37         43       73.6       69.3      29.35       69.3        536       5858       1347       2.90       0.00       0.00      0.000
12:41pm           310          5          5         37         44       73.6       69.2      29.34       69.2        538       5704       1344       2.76       0.00       0.00      0.000
12:42pm           342          4          7         37         43       73.6       69.1      29.34       69.1        540       5853       1340       2.61       0.00       0.00      0.000
12:43pm           345          1          7         37         43       73.6       69.0      29.34       69.0        541       5851       1335       2.47       0.00       0.00      0.000
12:44pm           218          2          7         37         43       73.6       69.0      29.34       69.0        540       5851       1334       2.43       0.00       0.00      0.000
12:45pm           166          4          7         37         43       73.6       69.1      29.34       69.1        539       5853       1339       2.49       0.00       0.00      0.000
12:46pm           283          5         12         37         42       73.6       68.9      29.34       68.9        539       6003       1326       2.25       0.00       0.00      0.000
12:47pm           170          5         12         37         42       73.6       68.7      29.34       68.7        544       5998       1319       2.01       0.00       0.00      0.000
12:48pm           133          7         12         37         42       73.6       68.6      29.33       68.6        546       5996       1315       1.88       0.00       0.00      0.000
12:49pm           166          4         12         37         43       73.6       68.5      29.34       68.5        542       5839       1304       1.75       0.00       0.00      0.000
12:50pm           193          6         12         37         44       73.6       68.4      29.34       68.4        542       5685       1298       1.62       0.00       0.00      0.000
12:51pm           161         10         12         37         43       73.6       68.5      29.34       68.5        542       5839       1304       1.69       0.00       0.00      0.000
12:52pm           192          4         12         37         43       73.6       68.5      29.34       68.5        545       5839       1307       1.67       0.00       0.00      0.000
12:53pm           349          2         12         37         44       73.6       68.5      29.33       68.5        546       5687       1308       1.64       0.00       0.00      0.000
12:54pm           310          1         12         37         45       73.6       68.6      29.33       68.6        546       5541       1315       1.71       0.00       0.00      0.000
12:55pm           272          3         12         37         45       73.6       68.8      29.34       68.8        545       5546       1327       1.88       0.00       0.00      0.000
12:56pm           163          2          5         37         45       73.6       68.9      29.33       68.9        546       5548       1334       1.95       0.00       0.00      0.000
12:57pm           144          2          5         37         44       73.6       69.1      29.33       69.1        546       5702       1347       2.12       0.00       0.00      0.000
12:58pm           293          3          5         37         44       73.6       69.2      29.33       69.2        546       5704       1353       2.18       0.00       0.00      0.000
12:59pm           287          1          5         37         45       73.6       69.3      29.33       69.3        547       5557       1361       2.24       0.00       0.00      0.000
1:00pm            258          5         10         37         45       73.6       69.4      29.33       69.4        546       5560       1366       2.30       0.00       0.00      0.000
1:01pm            143          4          5         37         43       73.6       69.5      29.33       69.5        547       5863       1374       2.36       0.00       0.00      0.000
1:02pm            202          5          7         37         42       73.6       69.4      29.33       69.4        548       6016       1368       2.22       0.00       0.00      0.000
1:03pm            231          2          8         37         43       73.6       69.3      29.33       69.3        548       5858       1362       2.09       0.00       0.00      0.000
1:04pm            149          1          8         37         42       73.6       69.2      29.33       69.2        548       6011       1356       1.96       0.00       0.00      0.000
1:05pm            237          0          8         37         44       73.6       69.3      29.33       69.3        548       5706       1362       2.02       0.00       0.00      0.000
1:06pm            237          2          2         37         45       73.6       69.3      29.33       69.3        548       5557       1362       1.99       0.00       0.00      0.000
1:07pm            254          7          7         37         44       73.6       69.4      29.33       69.4        548       5709       1368       2.06       0.00       0.00      0.000
1:08pm            127          6          7         37         43       73.6       69.5      29.33       69.5        548       5863       1375       2.12       0.00       0.00      0.000
1:09pm            159          2          7         37         45       73.6       69.6      29.33       69.6        548       5564       1382       2.19       0.00       0.00      0.000
1:10pm            179          8          9         37         44       73.6       69.6      29.33       69.6        549       5713       1383       2.15       0.00       0.00      0.000
1:11pm            170          8          8         37         45       73.6       69.6      29.33       69.6        549       5564       1383       2.11       0.00       0.00      0.000
1:12pm            216          9         13         37         44       73.6       69.4      29.33       69.4        550       5709       1372       1.88       0.00       0.00      0.000
1:13pm            189          5         13         37         44       73.6       69.1      29.33       69.1        550       5702       1353       1.55       0.00       0.00      0.000
1:14pm            210          4         13         37         46       73.6       69.0      29.33       69.0        550       5405       1346       1.43       0.00       0.00      0.000
1:15pm            196          1         13         37         47       73.6       69.0      29.33       69.0        549       5262       1345       1.41       0.00       0.00      0.000
1:16pm            189          3          3         36         48       73.6       69.1      29.33       69.1        548       5124       1350       1.48       0.00       0.00      0.000
1:17pm            254          2          9         37         46       73.6       69.3      29.33       69.3        548       5412       1363       1.66       0.00       0.00      0.000
1:18pm            157          7          9         37         45       73.6       69.4      29.33       69.4        550       5560       1372       1.73       0.00       0.00      0.000
1:19pm            162          4          9         37         45       73.6       69.2      29.33       69.2        549       5555       1358       1.50       0.00       0.00      0.000
1:20pm            188          5          9         37         44       73.6       69.1      29.33       69.1        551       5702       1354       1.38       0.00       0.00      0.000
1:21pm            102          1          5         37         46       73.6       69.0      29.33       69.0        553       5405       1350       1.26       0.00       0.00      0.000
1:22pm            182          3          5         37         46       73.6       69.1      29.33       69.1        554       5407       1357       1.33       0.00       0.00      0.000
1:23pm            154          4          7         37         46       73.6       69.2      29.33       69.2        553       5409       1362       1.41       0.00       0.00      0.000
1:24pm            125          6          8         37         45       73.6       69.3      29.33       69.3        551       5557       1367       1.49       0.00       0.00      0.000
1:25pm            160          5          8         37         44       73.6       69.2      29.32       69.2        555       5704       1365       1.36       0.00       0.00      0.000
1:26pm            114          2          8         37         45       73.6       69.0      29.32       69.0        557       5551       1354       1.14       0.00       0.00      0.000
1:27pm             84          4          8         37         46       73.6       69.0      29.32       69.0        557       5405       1354       1.12       0.00       0.00      0.000
1:28pm            181          4          8         37         46       73.6       69.0      29.33       69.0        554       5405       1351       1.11       0.00       0.00      0.000
1:29pm            143          7         10         37         45       73.8       68.9      29.32       68.9        556       5548       1347       0.99       0.00       0.00      0.000
1:30pm            145          7         11         37         45       73.6       68.8      29.32       68.8        555       5546       1339       0.87       0.00       0.00      0.000
1:31pm            191          9         13         37         45       73.8       68.5      29.32       68.5        555       5539       1320       0.56       0.00       0.00      0.000
1:32pm            177          6         13         37         45       73.8       68.4      29.32       68.4        558       5537       1317       0.45       0.00       0.00      0.000
1:33pm            102          4         13         37         46       73.8       68.3      29.32       68.3        560       5389       1313       0.34       0.00       0.00      0.000
1:34pm            162          2         13         37         46       73.8       68.2      29.32       68.2        560       5387       1306       0.24       0.00       0.00      0.000
1:35pm            154         13         13         37         48       73.8       68.2      29.32       68.2        561       5104       1309       0.24       0.00       0.00      0.000
1:36pm            137          4         13         37         46       73.8       68.3      29.32       68.3        560       5389       1314       0.33       0.00       0.00      0.000
1:37pm             85          2         13         37         47       73.8       68.3      29.32       68.3        561       5247       1315       0.33       0.00       0.00      0.000
1:38pm            152          6         13         37         48       73.8       68.5      29.32       68.5        560       5111       1327       0.52       0.00       0.00      0.000
1:39pm            187          6         13         37         46       73.8       68.6      29.32       68.6        561       5396       1334       0.61       0.00       0.00      0.000
1:40pm            153          1         13         37         45       73.8       68.7      29.32       68.7        561       5544       1341       0.70       0.00       0.00      0.000
1:41pm            216          5          6         37         45       73.8       68.7      29.32       68.7        561       5544       1341       0.69       0.00       0.00      0.000
1:42pm            190          5          6         37         46       73.8       68.7      29.32       68.7        560       5398       1338       0.68       0.00       0.00      0.000
1:43pm            207          3          9         37         46       73.8       68.8      29.32       68.8        558       5400       1342       0.76       0.00       0.00      0.000
1:44pm            151          1          9         37         45       73.8       68.8      29.32       68.8        561       5546       1347       0.75       0.00       0.00      0.000
1:45pm            339          4          9         37         46       73.8       69.0      29.32       69.0        561       5405       1360       0.94       0.00       0.00      0.000
1:46pm            339          0          4         37         45       73.8       69.1      29.32       69.1        561       5553       1366       1.02       0.00       0.00      0.000
1:47pm            310          1          4         37         46       73.8       69.3      29.32       69.3        561       5412       1379       1.20       0.00       0.00      0.000
1:48pm            117          3          4         37         45       73.8       69.4      29.32       69.4        562       5560       1387       1.28       0.00       0.00      0.000
1:49pm            183          2          4         37         46       73.8       69.7      29.32       69.7        561       5421       1405       1.56       0.00       0.00      0.000
1:50pm            183          3          4         37         47       73.8       70.0      29.32       70.0        562       5284       1425       1.83       0.00       0.00      0.000
1:51pm            186          3          5         37         44       73.8       70.2      29.32       70.2        562       5728       1438       2.00       0.00       0.00      0.000
1:52pm            158          8         10         37         45       73.8       70.2      29.32       70.2        562       5578       1438       1.96       0.00       0.00      0.000
1:53pm            234          2         10         37         44       73.8       70.1      29.32       70.1        562       5725       1431       1.83       0.00       0.00      0.000
1:54pm            265          2         10         37         44       73.8       70.1      29.32       70.1        562       5725       1431       1.80       0.00       0.00      0.000
1:55pm            228          7         10         37         44       73.8       70.0      29.32       70.0        562       5723       1425       1.67       0.00       0.00      0.000
1:56pm            206          2          8         37         44       73.8       69.9      29.32       69.9        562       5721       1418       1.55       0.00       0.00      0.000
1:57pm            197          6          9         37         44       73.8       69.9      29.32       69.9        562       5721       1418       1.52       0.00       0.00      0.000
1:58pm            142          6          9         37         44       73.8       69.7      29.32       69.7        562       5716       1406       1.30       0.00       0.00      0.000
1:59pm            127          6         10         37         45       73.8       69.6      29.32       69.6        562       5564       1399       1.18       0.00       0.00      0.000
2:00pm            192          8         10         37         45       73.8       69.4      29.32       69.4        563       5560       1388       0.96       0.00       0.00      0.000
2:01pm            267          1         13         37         45       73.8       69.4      29.32       69.4        563       5560       1388       0.94       0.00       0.00      0.000
2:02pm            233          3         13         37         45       73.8       69.4      29.31       69.4        565       5560       1390       0.93       0.00       0.00      0.000
2:03pm            246          5         13         37         45       73.8       69.4      29.31       69.4        567       5560       1392       0.92       0.00       0.00      0.000
2:04pm            185          3         13         37         45       73.8       69.4      29.31       69.4        567       5560       1392       0.90       0.00       0.00      0.000
2:05pm            170          0         13         37         46       73.8       69.6      29.31       69.6        568       5418       1406       1.08       0.00       0.00      0.000
2:06pm            129          4          6         37         46       73.8       69.9      29.31       69.9        568       5425       1425       1.36       0.00       0.00      0.000
2:07pm            150          5          6         37         44       73.8       70.0      29.31       70.0        568       5723       1432       1.44       0.00       0.00      0.000
2:08pm            164          2          6         37         44       73.8       70.2      29.31       70.2        572       5728       1449       1.61       0.00       0.00      0.000
2:09pm            164          1          6         37         44       73.8       70.2      29.31       70.2        572       5728       1450       1.59       0.00       0.00      0.000
2:10pm            283          3          6         37         45       73.8       70.3      29.30       70.3        574       5581       1459       1.66       0.00       0.00      0.000
2:11pm            152          7         10         37         45       73.8       70.5      29.30       70.5        574       5585       1472       1.83       0.00       0.00      0.000
2:12pm            143          7         10         37         45       73.8       70.5      29.30       70.5        575       5585       1473       1.80       0.00       0.00      0.000
2:13pm            286          4         10         37         44       73.8       70.5      29.30       70.5        575       5735       1473       1.77       0.00       0.00      0.000
2:14pm            272          5         10         37         44       73.8       70.5      29.30       70.5        576       5735       1474       1.74       0.00       0.00      0.000
2:15pm            248          2         10         37         44       73.8       70.6      29.30       70.6        575       5737       1479       1.81       0.00       0.00      0.000
2:16pm            336          1          4         37         44       73.8       70.5      29.30       70.5        575       5735       1473       1.68       0.00       0.00      0.000
2:17pm             95          2          4         37         45       73.8       70.7      29.30       70.7        574       5590       1484       1.85       0.00       0.00      0.000
2:18pm             95          2          4         37         44       73.8       70.8      29.30       70.8        575       5742       1492       1.92       0.00       0.00      0.000
2:19pm            329          3          7         37         43       73.8       71.0      29.30       71.0        576       5899       1506       2.09       0.00       0.00      0.000
2:20pm            283          5          8         37         44       73.8       71.0      29.30       71.0        576       5747       1506       2.05       0.00       0.00      0.000
2:21pm            287          2          7         37         44       73.8       71.0      29.30       71.0        576       5747       1506       2.02       0.00       0.00      0.000
2:22pm            278          4          7         37         43       73.8       71.0      29.30       71.0        576       5899       1506       1.99       0.00       0.00      0.000
2:23pm            211          5          7         37         42       73.8       71.0      29.30       71.0        575       6056       1505       1.95       0.00       0.00      0.000
2:24pm            245          5          7         37         43       73.8       71.0      29.30       71.0        575       5899       1505       1.92       0.00       0.00      0.000
2:25pm            142          5          7         37         43       73.8       70.9      29.30       70.9        574       5897       1497       1.79       0.00       0.00      0.000
2:26pm            229          2          5         37         43       73.8       70.8      29.30       70.8        575       5895       1492       1.66       0.00       0.00      0.000
2:27pm            216          6          8         37         43       73.6       70.8      29.30       70.8        576       5895       1493       1.63       0.00       0.00      0.000
2:28pm            213          1          8         37         44       73.6       70.8      29.30       70.8        575       5742       1492       1.61       0.00       0.00      0.000
2:29pm            291          0          8         37         45       73.6       70.8      29.30       70.8        576       5592       1493       1.58       0.00       0.00      0.000
2:30pm            162          2          8         37         45       73.6       71.0      29.30       71.0        575       5597       1505       1.75       0.00       0.00      0.000
2:31pm            198          5          5         37         46       73.6       71.2      29.30       71.2        575       5454       1517       1.92       0.00       0.00      0.000
2:32pm            293          4          5         37         45       73.6       71.4      29.30       71.4        576       5606       1531       2.09       0.00       0.00      0.000
2:33pm            149          6          6         37         42       73.5       71.5      29.30       71.5        575       6068       1536       2.15       0.00       0.00      0.000
2:34pm            211         11         14         37         43       73.5       71.5      29.31       71.5        573       5912       1534       2.12       0.00       0.00      0.000
2:35pm            186         10         14         37         42       73.5       71.3      29.30       71.3        574       6063       1522       1.88       0.00       0.00      0.000
2:36pm            174          2         10         37         42       73.5       71.0      29.30       71.0        575       6056       1505       1.56       0.00       0.00      0.000
2:37pm            162          2         10         37         43       73.5       70.9      29.30       70.9        576       5897       1499       1.43       0.00       0.00      0.000
2:38pm            216          5         10         37         44       73.5       71.0      29.31       71.0        573       5747       1502       1.51       0.00       0.00      0.000
2:39pm            129          3         10         37         43       73.5       70.9      29.30       70.9        575       5897       1498       1.38       0.00       0.00      0.000
2:40pm            108          3         11         37         44       73.5       71.0      29.30       71.0        576       5747       1506       1.46       0.00       0.00      0.000
2:41pm            210          4          5         37         43       73.5       71.0      29.30       71.0        574       5899       1503       1.43       0.00       0.00      0.000
2:42pm            183          1          7         37         43       73.5       71.1      29.30       71.1        574       5902       1510       1.51       0.00       0.00      0.000
2:43pm            189          7         13         37         42       73.5       71.2      29.30       71.2        574       6061       1516       1.58       0.00       0.00      0.000
2:44pm            177          2         13         37         42       73.5       71.1      29.30       71.1        575       6058       1511       1.46       0.00       0.00      0.000
2:45pm            234          3         13         37         42       73.5       71.1      29.30       71.1        575       6058       1511       1.44       0.00       0.00      0.000
2:46pm            238          7          9         37         43       73.5       71.1      29.30       71.1        576       5902       1512       1.41       0.00       0.00      0.000
2:47pm            206          4          9         37         43       73.5       71.1      29.30       71.1        575       5902       1511       1.39       0.00       0.00      0.000
2:48pm            166          3          9         38         43       73.5       71.2      29.30       71.2        576       5904       1518       1.46       0.00       0.00      0.000
2:49pm            242          5         13         37         43       73.5       71.2      29.30       71.2        575       5904       1517       1.44       0.00       0.00      0.000
2:50pm            260          3         14         37         41       73.5       71.1      29.30       71.1        576       6218       1512       1.32       0.00       0.00      0.000
2:51pm            215          6         10         37         42       73.5       70.9      29.30       70.9        576       6053       1499       1.09       0.00       0.00      0.000
2:52pm            291          6         10         37         42       73.5       70.8      29.30       70.8        576       6051       1493       0.98       0.00       0.00      0.000
2:53pm            254          4         10         37         42       73.5       70.7      29.30       70.7        576       6048       1487       0.86       0.00       0.00      0.000
2:54pm            195          2         11         37         43       73.5       70.6      29.30       70.6        577       5890       1481       0.75       0.00       0.00      0.000
2:55pm            212          5         11         38         42       73.5       70.5      29.30       70.5        575       6043       1473       0.64       0.00       0.00      0.000
2:56pm            253          5          5         37         43       73.5       70.5      29.30       70.5        577       5887       1475       0.63       0.00       0.00      0.000
2:57pm            283          3          5         37         44       73.5       70.6      29.30       70.6        576       5737       1480       0.72       0.00       0.00      0.000
2:58pm            341          5          8         37         43       73.5       70.6      29.30       70.6        577       5890       1481       0.71       0.00       0.00      0.000
2:59pm            145          4          8         37         42       73.5       70.6      29.30       70.6        578       6046       1482       0.69       0.00       0.00      0.000
3:00pm            153          7          8         37         43       73.5       70.6      29.30       70.6        580       5890       1485       0.68       0.00       0.00      0.000
3:01pm            151          4          7         37         43       73.5       70.7      29.30       70.7        581       5892       1492       0.77       0.00       0.00      0.000
3:02pm            152          2          7         37         44       73.5       70.7      29.30       70.7        581       5739       1492       0.76       0.00       0.00      0.000
3:03pm            198          9         10         37         44       73.5       70.9      29.30       70.9        581       5744       1505       0.94       0.00       0.00      0.000
3:04pm            164          9         12         37         43       73.5       70.9      29.30       70.9        580       5897       1504       0.93       0.00       0.00      0.000
3:05pm            258          5         12         37         42       73.5       70.8      29.30       70.8        581       6051       1499       0.81       0.00       0.00      0.000
3:06pm            148          7         11         37         43       73.5       70.7      29.30       70.7        582       5892       1493       0.70       0.00       0.00      0.000
3:07pm            102          2         11         37         44       73.5       70.7      29.29       70.7        584       5739       1496       0.69       0.00       0.00      0.000
3:08pm            119          6         11         38         42       73.5       70.8      29.29       70.8        584       6051       1503       0.77       0.00       0.00      0.000
3:09pm            164          5         11         37         43       73.5       70.8      29.29       70.8        584       5895       1503       0.76       0.00       0.00      0.000
3:10pm            151          9         14         37         43       73.5       70.8      29.29       70.8        584       5895       1502       0.75       0.00       0.00      0.000
3:11pm            145          2         11         37         42       73.5       70.6      29.29       70.6        586       6046       1493       0.54       0.00       0.00      0.000
3:12pm            123          6         11         37         43       73.5       70.5      29.29       70.5        586       5887       1486       0.43       0.00       0.00      0.000
3:13pm            338          3         12         37         42       73.5       70.4      29.29       70.4        585       6041       1479       0.32       0.00       0.00      0.000
3:14pm            205          4         12         37         43       73.5       70.4      29.29       70.4        588       5885       1482       0.32       0.00       0.00      0.000
3:15pm            148         17         17         37         43       73.5       70.3      29.29       70.3        588       5882       1476       0.21       0.00       0.00      0.000
3:16pm            153          6         18         38         42       73.5       70.1      29.29       70.1        590       6033       1465       0.01       0.00       0.00      0.000
3:17pm            144          7         18         37         43       73.5       69.9      29.29       69.9        590       5873       1452      -0.19       0.00       0.00      0.000
3:18pm            163          3         18         37         43       73.5       69.7      29.29       69.7        591       5868       1441      -0.38       0.00       0.00      0.000
3:19pm            171          4         18         37         44       73.5       69.6      29.29       69.6        591       5713       1434      -0.47       0.00       0.00      0.000
3:20pm            201          5         18         37         44       73.5       69.7      29.29       69.7        590       5716       1440      -0.37       0.00       0.00      0.000
3:21pm            177         10         10         38         44       73.5       69.8      29.29       69.8        591       5718       1447      -0.26       0.00       0.00      0.000
3:22pm            169          5         15         37         44       73.3       69.9      29.29       69.9        591       5721       1454      -0.16       0.00       0.00      0.000
3:23pm            154          8         15         37         44       73.3       69.8      29.29       69.8        591       5718       1447      -0.25       0.00       0.00      0.000
3:24pm             84          9         15         37         44       73.3       69.7      29.29       69.7        592       5716       1442      -0.35       0.00       0.00      0.000
3:25pm            125         10         15         37         44       73.3       69.6      29.29       69.6        591       5713       1434      -0.44       0.00       0.00      0.000
3:26pm            161          3         10         37         45       73.3       69.6      29.29       69.6        591       5564       1434      -0.44       0.00       0.00      0.000
3:27pm            154          3         10         37         45       73.1       69.7      29.29       69.7        591       5567       1441      -0.33       0.00       0.00      0.000
3:28pm            218          4         10         37         45       73.1       69.8      29.29       69.8        591       5569       1447      -0.23       0.00       0.00      0.000
3:29pm            179          1         10         37         44       73.1       70.0      29.29       70.0        591       5723       1460      -0.03       0.00       0.00      0.000
3:30pm            121         15         15         37         44       73.1       70.1      29.29       70.1        591       5725       1466       0.07       0.00       0.00      0.000
3:31pm            164          0         15         37         45       73.1       70.2      29.29       70.2        592       5578       1474       0.17       0.00       0.00      0.000
3:32pm            139          5         15         37         44       73.1       70.4      29.29       70.4        592       5732       1487       0.37       0.00       0.00      0.000

Data provided from:  Mark Hofmann's Bel Air, MD Weather Station